ECMWFFLT2_con_mucape_000.txt.gz
CAPE
1895 1790 1902 1550 1764 2041 1753 2174 2235 2056 2276 2325 2377 2397 2287 2023 2170 2432 2080 1639 1051 1067 1272 1795 1241 1571 2654 1431 1914 1646 1603 2230 2169 2080 1608 1878 1446 1396 1205 1444 1304 1250 1146 1029 1119 1016 1110 937 842 895 886 737 983 657 717 610 574 382 411 159 254 440
1710 1630 1781 1368 1857 1821 2129 2324 2284 2643 2287 2213 2133 2248 2198 2049 1801 2212 2059 1989 1491 1365 1585 1137 1415 1020 1220 832 1648 1651 1483 1680 1941 2220 2069 2041 1671 1561 1125 1202 1288 1212 1140 947 609 56 315 690 690 899 1053 1148 899 606 818 705 749 411 356 352 423 481
1616 1769 2034 2104 1607 1417 1672 1769 1763 1550 1544 1903 2070 1810 2352 2084 1765 2099 1629 1730 1510 1233 1638 1182 1381 1305 1662 2130 1489 2003 1552 1663 2038 2300 2344 2170 2074 1492 1252 1135 1019 1206 1277 926 114 70 204 128 376 188 608 967 377 414 615 747 768 533 363 365 361 590
1474 1924 2200 2248 2261 2247 2126 2390 2284 2425 2382 2419 2417 2141 2193 1995 1738 1848 1300 1684 1883 1282 1261 1910 1520 2178 1779 797 1542 1617 1337 1234 1622 1774 2218 2112 2320 1570 1435 1035 813 1360 1232 212 98 198 52 110 135 212 466 433 323 370 564 717 349 604 452 310 250 572
1281 1531 1734 2171 2234 2178 2252 2106 2224 2414 2449 2305 2147 2142 2114 2185 1909 1936 2059 1452 1306 1639 1278 1607 1140 1191 1107 1335 1250 1400 1333 1109 703 635 1913 644 641 906 980 1172 1373 991 483 407 382 259 170 174 234 179 358 363 340 373 514 600 557 541 632 621 625 467
1274 1214 1958 1623 1395 1752 2074 2360 2386 2323 2358 2165 1938 2110 2414 2259 2171 2430 2186 1778 1604 1472 742 1209 1580 1170 1368 1665 1746 1380 1414 1617 1210 1035 652 585 548 487 307 806 709 660 997 795 546 476 182 241 230 230 183 354 353 394 415 453 485 673 636 599 1111 593
1445 1413 1442 1476 1534 1476 1324 1338 2189 2261 2074 1830 1894 2067 2244 2231 2215 2443 2395 2070 1922 1347 1106 1156 1515 1693 1611 1823 1852 1901 1677 1825 1686 1207 1396 705 422 482 499 377 772 805 814 937 642 422 426 259 232 158 214 292 349 290 368 393 406 564 636 718 1194 725
1494 1476 1682 1472 1721 1775 1614 1351 1872 2162 1857 1879 1892 1994 2078 2019 2042 2272 2538 2284 2444 2006 1511 1237 749 1284 1732 1921 2086 2209 2152 1717 1623 858 1163 528 423 382 404 335 520 568 631 522 418 477 236 92 266 250 248 298 331 297 330 376 407 443 559 549 629 1010
1143 1336 1548 1299 1357 1395 1920 1675 1546 1461 1817 1688 1588 1829 2074 2154 2294 2123 2239 2006 1962 2423 1974 1523 1165 1346 1882 1999 2258 2381 2241 1946 1663 1043 903 789 415 326 277 296 356 531 551 532 429 415 320 284 180 319 216 218 245 212 346 350 346 400 419 390 686 873
1131 972 1190 1109 1073 1018 1012 1535 1781 1800 2015 1890 1953 2357 2592 2065 2123 2069 1806 1695 1386 2009 1821 1917 1579 1557 1839 2189 2332 2569 2080 2374 1934 1446 1459 956 520 353 307 292 195 348 275 411 308 282 302 228 181 176 168 185 204 302 322 375 277 247 237 399 514 838
928 1478 940 636 894 947 1080 1042 1209 1769 2107 1622 2140 2287 1688 2212 2208 1535 1852 1943 1566 1361 1532 2115 2099 2078 1922 2068 2154 2164 2322 2079 1998 1815 1538 723 784 545 483 428 130 141 371 286 254 280 248 297 253 161 279 144 158 302 258 262 267 150 199 180 284 477
967 1578 1332 470 812 675 688 994 1206 1130 2023 1685 2036 1599 1862 2240 2254 2430 2320 2296 2288 2603 2587 2781 2900 2573 1942 1568 1816 2252 2318 2099 1310 1637 1479 1210 1197 715 667 177 111 235 185 293 380 357 327 281 319 119 218 144 135 195 215 289 232 228 138 162 168 338
865 1451 1173 722 359 481 962 755 910 1019 1874 2101 2114 2169 2143 1543 2104 1990 2331 2218 1812 2337 2650 2924 3064 2749 2127 2049 2409 2386 2282 2035 1363 1842 1741 1424 1029 1330 606 296 224 200 245 490 454 466 312 306 338 521 664 341 137 121 77 160 217 217 122 137 148 224
1236 937 1008 568 754 397 586 776 821 1055 1316 1766 1647 1681 1981 1934 1725 1537 1514 2041 1762 1869 2181 2502 2448 2511 2515 2433 2465 2330 2170 1830 1663 1570 1695 1363 1506 1152 935 631 494 365 336 348 580 795 522 281 257 517 613 749 574 286 208 135 258 208 293 188 196 194
1781 1254 1114 842 532 617 659 419 720 860 982 1035 1094 1314 2119 1975 1907 1599 1766 1868 1704 2172 2201 2402 2233 2576 2613 2433 2229 2328 1922 1847 1603 1884 1616 1530 1426 694 670 885 1006 459 694 548 480 444 939 1239 623 523 522 838 564 457 595 207 203 284 187 306 292 162
1596 1577 1268 1143 843 853 757 751 580 565 581 759 532 684 1283 1652 1586 1608 1525 1366 1801 2139 2094 2395 2433 2443 2510 2317 2201 2209 2082 1916 1854 1871 1490 1801 1582 651 913 1472 1278 1156 864 612 637 1032 818 454 504 552 475 604 413 696 642 215 147 145 157 118 40 94
2002 1729 1364 855 563 742 661 660 556 531 539 478 452 473 528 608 529 972 1381 1318 1732 1801 2169 2106 2222 2169 2256 2163 2103 1918 2074 1974 1608 1138 1112 1219 1217 1148 1455 1349 1474 1563 1476 1269 692 574 811 1005 642 510 528 409 569 555 250 187 232 147 66 58 41 59
2314 1697 997 597 639 532 557 539 326 346 324 304 406 375 389 376 577 569 931 1563 1736 1825 1809 1807 1856 1829 2077 2022 1822 1820 1822 1633 1296 1010 1017 944 1368 1084 1400 1172 1292 1118 1043 1010 712 617 702 1022 646 510 598 377 476 653 430 307 303 227 190 82 31 33
2104 1322 847 750 673 595 406 312 447 202 266 208 169 280 376 290 334 407 814 862 736 846 443 1188 1372 1519 1715 1631 1630 1360 1115 984 1180 1177 1154 840 1071 731 958 1346 831 950 1037 978 939 962 1030 790 434 496 546 789 740 355 655 458 309 324 264 165 94 61
1586 905 722 538 258 96 15 0 70 70 96 208 223 224 216 239 272 149 377 432 396 392 388 369 470 556 772 1073 1236 1213 926 1037 1077 1058 1033 786 728 796 1056 1366 1392 1214 1212 1144 967 1513 1195 599 723 533 714 732 540 394 79 486 622 576 406 307 399 390
1448 916 412 253 66 7 0 0 23 5 76 9 119 150 51 32 72 195 179 22 5 0 8 128 132 320 402 471 668 1450 1281 752 702 591 657 833 746 646 1069 1159 1187 1021 921 1260 1307 621 1086 774 670 434 951 909 904 440 230 525 343 238 352 365 640 651
1271 824 442 290 52 11 6 0 0 0 0 0 0 0 0 12 4 18 0 0 0 0 0 35 65 142 264 267 243 362 664 694 1188 1016 852 534 330 519 652 586 517 606 415 602 735 1193 1117 963 596 811 732 738 810 899 282 242 508 42 416 353 579 746
1072 696 541 354 53 18 19 78 0 0 0 0 27 20 0 0 1 0 0 0 0 1 5 5 13 13 44 40 101 155 276 415 412 594 674 473 444 697 644 477 404 476 445 517 607 1275 1388 893 907 1012 1047 402 381 370 1498 597 353 34 318 69 77 239
1218 654 465 353 22 37 110 98 255 1 34 0 0 0 0 0 0 2 0 0 0 1 1 4 2 4 5 19 70 103 129 109 210 343 332 230 329 280 437 424 446 348 326 561 361 720 1279 971 1586 1078 419 563 783 69 66 415 930 584 44 22 82 124
1093 696 418 185 135 271 96 73 58 68 0 0 0 0 0 0 6 0 0 0 0 0 0 0 1 2 2 1 18 61 66 70 58 85 50 17 73 94 208 327 346 525 324 383 340 558 978 1018 935 944 929 432 311 270 231 322 421 744 642 313 91 9
877 660 385 180 233 31 2 0 0 0 0 0 0 0 0 0 2 5 0 0 0 0 0 3 0 1 2 4 13 34 82 15 23 33 24 14 4 4 2 19 171 305 423 700 708 572 641 1031 1106 1245 1232 866 275 750 490 274 207 146 391 722 664 315
839 499 323 186 182 17 12 10 0 0 0 0 0 0 2 2 0 0 1 0 6 37 16 17 7 6 2 1 7 10 20 10 2 7 8 14 6 6 0 2 26 47 121 227 367 414 472 316 443 827 893 625 1171 898 833 440 138 184 155 214 415 696
619 276 355 356 176 33 10 11 4 0 0 0 0 0 2 10 12 0 4 5 4 28 19 14 9 6 7 3 12 2 0 0 0 0 0 0 0 0 0 4 16 32 18 42 64 202 282 64 268 436 673 694 624 398 741 681 427 336 373 232 273 762
519 329 461 476 177 71 22 10 8 0 0 0 1 6 0 0 3 7 7 2 3 3 12 3 0 1 0 0 0 0 0 0 0 0 0 0 0 0 1 7 10 17 25 33 18 12 11 6 24 84 49 94 118 120 279 474 352 227 207 156 109 309
529 326 407 529 235 118 76 29 14 0 0 0 0 0 0 1 18 12 8 1 0 0 0 0 0 0 0 0 0 0 0 0 0 0 0 0 0 0 0 0 0 4 6 6 3 11 19 8 2 8 7 8 11 16 26 60 71 23 78 157 47 51
578 242 430 486 238 186 191 147 35 6 0 0 0 0 0 12 14 4 5 0 0 0 0 0 0 0 0 0 0 0 0 0 0 0 0 0 0 0 0 0 0 0 0 0 0 0 0 0 0 0 0 0 0 0 0 1 0 0 0 0 1 2
569 335 488 476 348 274 248 309 67 32 0 0 0 0 0 5 2 0 0 0 0 0 0 0 0 0 0 0 0 0 0 0 0 0 0 0 0 0 0 0 0 0 0 0 0 0 0 0 0 0 0 0 0 0 0 0 0 0 0 0 0 0
603 451 553 408 338 313 383 330 176 117 17 0 12 1 0 1 14 0 0 0 0 0 0 0 0 0 0 0 0 0 0 0 0 0 0 0 0 0 0 0 0 0 0 0 0 0 0 0 0 0 0 0 0 0 0 0 0 0 0 0 0 0
622 623 548 490 431 375 525 506 264 255 91 3 14 8 6 4 17 1 0 0 0 0 0 0 0 0 0 0 0 0 0 0 0 0 0 0 0 0 0 0 0 0 0 0 0 0 0 0 0 0 0 0 0 0 0 0 0 0 0 0 0 0
602 823 632 562 484 378 464 546 376 366 251 86 20 8 10 7 24 13 2 2 0 0 0 0 0 0 0 0 0 0 0 0 0 0 0 0 0 0 0 0 0 0 0 0 0 0 0 0 0 0 0 0 0 0 0 0 0 0 0 0 0 0
619 842 760 650 694 448 412 510 585 570 525 446 63 3 1 2 22 78 28 2 0 0 0 0 0 2 0 0 0 0 0 0 0 0 0 0 0 0 0 0 0 0 0 0 0 0 0 0 0 0 0 0 0 0 0 0 0 0 0 0 0 0
660 887 956 951 705 568 498 606 919 1002 983 908 829 406 42 109 309 391 217 91 1 0 0 0 0 5 0 0 0 0 0 0 0 0 0 0 0 0 0 0 0 0 0 0 0 0 0 0 0 0 0 0 0 0 0 0 0 0 0 0 0 0

ECMWFFLT2_con_mucape_006.txt.gz
CAPE
1416 1708 1855 2134 2248 2082 2000 2110 1933 2021 2053 2215 2134 2005 1856 1825 1915 1975 2151 2050 1727 1494 1334 1590 1618 1159 1482 1679 1890 1744 1724 1790 1698 1551 1504 1348 1366 1247 1135 1178 1241 1394 1236 1092 981 995 1074 1032 996 1140 929 1199 1115 890 720 758 136 142 27 651 608 545
1562 1770 1676 1934 1981 1909 1805 2063 2130 1791 2082 2114 1940 1991 1695 1689 1748 1729 1733 1858 1646 1750 1575 1478 1210 1252 1438 1449 1680 2084 1834 1875 1751 1560 1580 1558 1572 1456 1266 1292 1515 1419 1181 1062 1015 688 688 870 730 805 1102 1172 948 748 680 816 461 245 403 470 581 888
1538 1740 1951 2035 1952 1919 1863 1964 1777 2076 1950 1838 1882 1883 1758 1650 1735 1670 1474 1449 1281 1476 1414 1510 1686 1308 1544 1474 1456 2278 2148 2001 1939 1766 1697 1691 1567 1480 1421 1391 1500 1340 1311 1299 829 408 408 634 456 688 627 908 845 818 1004 707 462 815 397 552 513 906
1698 1774 1933 1825 1858 1878 2016 2124 1955 1887 1724 1643 1753 1555 1325 1427 1456 1601 1630 1519 1035 1211 1208 1184 1684 1567 1179 1435 1899 2423 2286 2260 2084 1827 1342 1560 1602 1531 1377 1475 1393 1286 1281 762 152 54 258 263 90 361 678 658 618 835 692 751 358 429 322 417 697 962
1583 1833 1673 1828 1770 2011 1953 1938 1806 1927 1667 1422 1502 1630 1721 1306 1330 1215 1238 1226 1331 1064 975 1528 1536 1390 1260 1263 991 1439 1584 1753 1540 1537 1625 789 1051 1327 1304 938 1020 1078 508 131 6 2 2 233 231 82 198 462 788 749 462 875 952 351 272 447 864 1003
1656 1378 1500 1461 1689 1731 1602 1974 1979 1970 1498 1284 1154 1374 1059 896 1260 1246 1293 1376 1035 957 1134 1754 1583 1802 1406 1988 1529 1418 1478 2095 1092 758 1636 815 971 1121 825 510 606 359 228 201 256 536 398 452 265 354 663 294 668 584 643 694 645 784 505 406 973 1026
1811 1650 1322 1187 1408 1390 1418 1562 1841 1893 1680 1263 1252 1154 1004 1142 1503 1560 1108 1131 888 1159 1412 1334 1708 1335 1331 1537 1314 1538 1509 1560 1605 1539 1330 1052 540 836 908 538 581 466 405 474 435 304 360 200 211 128 26 406 382 482 753 650 729 775 602 481 933 1113
1127 1169 1196 1176 1230 1198 1093 1279 1100 1702 1946 1604 1231 1020 1167 1517 1431 1363 1375 1176 1088 992 937 954 1651 1418 1465 1019 1006 1127 1045 917 1284 1414 1184 1424 879 572 700 733 644 459 332 319 403 490 393 290 295 166 349 230 388 260 668 1156 716 883 622 501 636 1033
1081 1041 793 1230 1097 1160 915 964 830 1218 1310 1449 1400 1299 1234 1278 1483 1470 1216 1110 1261 1316 1449 913 1233 1203 1281 972 774 909 866 1209 1135 1302 831 1415 1023 747 860 692 828 669 568 430 456 570 372 371 364 411 408 222 360 380 289 491 647 670 738 483 413 777
846 577 878 886 830 907 840 1190 830 944 1446 1415 1090 1340 1352 1195 1005 967 1142 994 680 1196 1351 1120 1662 1086 1154 1130 956 1229 1324 1524 1078 1384 1430 1310 1395 1270 1221 747 876 801 389 552 313 476 603 370 357 436 349 352 145 211 551 476 416 435 510 710 593 574
453 993 427 543 819 1058 1330 1100 938 1351 1425 1339 1171 823 1002 1200 1661 1164 1186 1020 940 1255 1020 1227 1573 1866 1674 1543 1322 1594 1947 1706 1724 1756 1529 1492 1412 1365 1350 499 408 434 562 580 577 547 319 415 313 362 410 344 214 67 144 476 360 433 432 806 522 402
561 1156 704 289 427 573 625 570 1041 1136 930 718 702 921 928 876 1103 1156 982 899 1060 1039 1026 1206 1570 2094 1970 2072 1642 1724 1630 1722 1544 1894 1786 1615 1560 1374 1180 505 580 634 928 664 692 886 698 527 369 358 325 350 325 352 252 513 347 351 426 751 504 524
456 819 735 706 659 616 711 306 531 694 1187 1167 812 634 616 732 1216 1657 1532 1458 1180 1005 968 1247 1845 2207 1487 1401 1599 1415 1450 1755 2101 1693 1322 1243 1496 1519 1413 1061 575 849 457 579 741 413 502 557 364 337 528 391 341 288 256 211 463 508 593 405 916 1089
587 495 855 756 839 604 665 496 324 1036 1841 1779 1482 630 729 847 1368 1758 1458 1096 1120 1554 1324 1957 1780 2061 2233 1722 1612 1194 1210 1358 1895 1653 1462 1765 1543 1454 1560 1217 718 505 654 685 860 642 600 600 623 787 789 672 483 684 418 239 212 398 330 359 532 997
1168 707 554 432 626 679 870 646 701 871 969 1370 1746 1340 1476 1246 1270 1602 1599 1136 820 1034 1510 1766 1953 2156 1979 1501 1435 1214 1004 1306 1458 1450 1548 1521 1581 1831 1422 1127 1187 1618 832 941 635 656 1322 996 930 826 984 936 741 672 527 415 413 382 414 561 254 520
1243 1218 1309 1258 1217 1014 822 772 763 747 1172 911 961 962 1786 1435 1184 1766 1349 979 934 1206 1036 984 1643 2026 2052 1906 1544 1608 1266 1726 1689 1600 1638 1531 1560 1356 1583 1663 1524 1614 843 759 716 1071 1207 1140 686 883 972 887 849 787 695 534 568 453 212 413 332 422
1548 1453 1319 1279 1078 917 1085 839 654 378 498 435 963 795 840 905 1275 1289 1307 1316 1474 1363 1195 1668 1505 1831 2137 1737 1304 1588 1439 1506 1786 1800 1458 1502 1643 1386 1289 1523 1328 1400 1522 1031 565 990 1173 1214 1001 1148 935 789 594 658 707 613 595 454 341 319 215 206
1627 1394 1346 1255 781 858 619 217 538 378 494 349 458 592 690 688 911 1165 1378 1341 1407 1676 1490 1424 1487 1402 1759 1163 1367 1179 1294 1607 1501 1486 1474 1156 1036 1213 1638 1699 1667 1389 1333 1148 1049 894 1040 1067 859 1168 1305 1353 1499 1170 902 824 452 516 466 383 280 210
1769 1411 1186 1093 1288 810 656 483 14 216 0 152 388 31 394 487 674 1008 1301 1214 977 1514 1236 1446 1395 1483 1379 1295 1401 1442 1566 1566 1629 1665 1574 1003 1102 1193 1205 1328 1468 1415 1296 883 1172 1054 1316 1045 737 651 600 1337 1498 1214 1165 1058 860 655 565 458 386 301
1744 1288 1332 1246 987 405 434 548 325 472 256 140 269 267 608 495 565 582 669 730 946 1118 823 1036 1076 1434 1300 1189 1495 1638 1492 1510 1518 1401 1468 1214 1009 911 844 822 826 867 829 1014 1342 936 656 572 636 754 865 847 744 876 1230 1184 962 671 451 285 340 215
1427 1316 928 663 705 437 574 576 661 624 284 163 177 277 404 385 244 161 90 0 45 218 430 362 631 676 919 1490 1204 1668 1667 1312 1294 1364 1200 890 842 796 787 781 735 1096 1016 952 1020 739 397 520 568 570 917 900 680 705 1012 879 506 470 418 460 230 271
1345 1144 1193 949 1352 1002 686 307 366 386 260 91 2 64 146 247 161 183 142 269 378 147 304 500 457 300 550 994 1463 1400 1570 1606 1399 1282 1218 982 893 929 787 1067 1090 1008 971 897 821 803 701 694 490 480 573 587 586 859 1263 584 81 217 755 435 282 226
1138 1084 1034 1277 541 888 768 895 764 293 458 6 2 92 1 12 37 49 332 235 408 550 594 59 0 83 321 516 657 890 1226 1186 904 972 838 794 910 853 976 909 674 761 785 667 597 703 580 521 453 507 522 214 286 519 562 577 774 378 731 538 158 97
1088 883 1146 746 955 1114 869 672 540 49 10 17 0 113 69 72 34 35 58 136 96 74 3 52 86 44 5 64 886 773 830 837 982 1100 795 797 1082 819 720 736 580 849 675 528 447 527 738 432 459 371 120 100 485 458 295 418 640 694 990 605 90 80
866 948 844 793 1073 712 574 644 367 0 0 0 0 23 116 145 121 28 98 89 220 386 144 78 14 0 9 103 94 188 237 567 875 773 969 827 968 851 736 722 805 790 480 480 452 514 530 368 397 530 697 292 217 178 288 454 436 698 774 711 273 45
783 877 740 1008 864 663 665 400 336 28 0 10 107 286 118 38 200 93 18 212 52 58 48 94 0 16 13 86 244 185 329 154 442 351 156 209 84 508 696 585 806 545 655 550 674 312 343 303 434 402 733 668 718 575 357 619 494 289 787 536 362 305
758 743 702 934 616 569 454 163 111 0 6 56 257 618 441 322 70 84 292 170 186 277 36 88 62 8 2 21 34 21 42 6 0 1 15 13 1 21 0 35 255 575 499 320 611 277 324 302 389 342 410 454 473 604 693 633 502 383 339 606 396 355
749 739 602 972 533 389 276 141 158 15 114 330 415 141 228 164 244 148 291 138 165 172 29 70 63 0 0 0 0 0 0 1 0 0 0 4 36 29 45 9 63 140 152 370 450 204 129 63 165 40 165 203 223 343 358 353 261 361 195 127 444 580
791 784 767 1000 372 324 288 150 335 220 204 405 150 152 16 1 41 277 279 404 176 26 97 18 0 0 0 0 0 0 0 0 0 0 0 0 2 18 62 79 79 104 85 56 81 126 130 121 156 284 265 256 208 173 368 301 346 107 150 39 38 92
812 758 811 918 343 399 322 125 385 176 422 96 51 6 0 88 110 260 327 61 12 18 2 0 0 0 0 0 0 0 0 0 0 0 0 0 0 0 0 2 22 23 21 7 4 0 0 0 0 0 0 458 139 187 248 231 230 181 110 30 46 1
741 740 803 829 389 478 375 168 345 274 495 60 60 144 76 72 71 96 9 66 32 46 15 0 0 0 0 0 0 0 0 0 0 0 0 0 0 0 0 0 0 0 0 0 0 0 0 0 0 0 0 0 0 0 0 0 0 0 0 0 0 0
766 814 806 717 532 516 493 219 431 306 575 194 186 227 98 101 87 46 65 125 61 29 0 0 0 0 0 0 0 0 0 0 0 0 0 0 0 0 0 0 0 0 0 0 0 0 0 0 0 0 0 0 0 0 0 0 0 0 0 0 0 0
682 878 759 669 570 568 620 289 572 380 622 426 281 295 164 251 116 171 114 123 14 8 0 0 0 0 0 0 0 0 0 0 0 0 0 0 0 0 0 0 0 0 0 0 0 0 0 0 0 0 0 0 0 0 0 0 0 0 0 0 0 0
747 853 756 739 657 705 719 493 704 415 564 379 323 512 202 352 291 267 163 256 125 30 11 20 5 1 0 0 0 0 0 0 0 0 0 0 0 0 0 0 0 0 0 0 0 0 0 0 0 0 0 0 0 0 0 0 0 0 0 0 0 0
760 879 829 810 708 784 816 639 783 371 553 337 384 459 415 387 310 477 270 289 272 200 134 58 35 14 0 28 8 0 0 0 0 0 0 0 0 0 0 0 0 0 0 0 0 0 0 0 0 0 0 0 0 0 0 0 0 0 0 0 0 0
748 946 939 819 776 842 840 835 855 514 474 421 239 328 426 384 372 637 498 281 376 482 307 250 116 16 10 118 9 0 0 0 0 0 0 0 0 0 0 0 0 0 0 0 0 0 0 0 0 0 0 0 0 0 0 0 0 0 0 0 0 0
516 1261 810 716 905 958 1022 988 992 858 470 630 322 399 372 642 481 720 893 277 403 403 654 431 266 48 55 187 65 2 0 0 0 0 0 0 0 0 0 0 0 0 0 0 0 0 0 0 0 0 0 0 0 0 0 0 0 0 0 0 0 0

ECMWFFLT2_con_mucape_009.txt.gz
CAPE
2113 2245 2307 2322 2355 2415 2464 2534 2574 2686 2638 2606 2584 2424 2384 2402 2293 2190 2011 2092 1874 1786 1655 1692 1617 1615 1886 1847 1679 1810 1719 1739 1717 1661 1551 1368 1345 1306 1234 1262 1318 1222 1144 1002 1046 1104 1259 1107 618 615 825 982 1237 872 433 591 327 449 438 553 469 370
2029 2129 2262 2254 2278 2303 2257 2297 2274 2268 2432 2334 2304 2226 2101 2007 1872 1962 1702 1595 1568 1519 1420 1316 1284 1934 1721 1910 1884 1852 1780 1761 1754 1658 1519 1429 1340 1336 1294 1340 1374 1401 1210 1128 974 981 941 1087 995 709 524 858 794 456 462 608 477 525 494 369 467 749
1914 2087 2209 2143 2123 2245 2136 2134 2145 2263 2266 2369 2333 2212 1922 1933 1908 1716 1513 1209 1282 1313 1359 1068 898 1462 1367 1685 1927 1968 1934 1885 1743 1646 1658 1592 1514 1399 1434 1387 1517 1549 1300 1285 973 465 394 414 457 816 1247 841 431 470 465 631 433 460 430 567 622 1012
1788 1982 2076 2028 1970 2159 2086 1973 2036 2068 2177 2087 2067 1868 1876 1784 1829 1668 1527 1306 1150 1186 1038 1087 1433 1466 1335 1459 1531 1874 2087 1952 1765 1666 1840 1697 1694 1538 1366 1378 1491 1579 1443 1229 767 156 251 164 123 42 399 382 494 486 478 496 384 361 557 924 786 1059
1949 2048 2035 2000 1928 1929 1963 1891 1931 1883 1847 1939 1951 1716 1733 1591 1621 1563 1428 1290 1112 1025 963 1019 1196 929 1145 1260 1686 1760 1769 1866 1646 1667 1769 1585 1483 1556 1320 1312 1312 1354 1184 929 527 65 8 154 256 43 261 354 452 441 385 412 509 459 644 828 942 1033
2113 2058 2102 2008 1983 2184 1964 1843 1734 1784 1684 1735 1652 1427 1351 1333 1489 1531 1446 1204 1036 1052 921 1126 1192 960 1208 1100 1179 1506 1597 1692 1503 1528 1300 1192 1438 1351 1363 1226 1125 1159 996 468 304 1 0 41 231 46 253 336 446 476 365 531 525 596 630 788 1080 1202
2170 2062 2052 2042 2077 2015 1964 1862 1819 1714 1649 1587 1426 1251 1210 1267 1270 1222 1312 1309 1181 975 932 1005 1181 887 1388 1087 1211 1128 1075 1215 1326 1105 1270 808 923 986 1240 836 895 689 516 57 51 221 243 56 24 16 0 134 363 258 345 461 518 561 642 796 1086 1143
2126 2045 2064 2038 2037 1890 1876 1825 1710 1696 1641 1573 1405 1334 1160 1294 1228 1132 1019 1002 1004 936 870 963 974 962 1277 1104 1055 1042 906 909 1239 1279 1162 1314 730 800 944 621 628 596 305 259 288 328 259 103 14 10 37 134 261 370 337 540 612 472 611 714 914 1232
1863 1866 1848 1716 1779 1823 1803 1821 1789 1640 1616 1492 1394 1336 1310 1220 1339 1169 1142 994 898 682 962 977 1109 1116 1129 1099 960 860 766 726 843 886 837 858 871 560 744 671 567 546 478 211 319 334 332 307 214 164 165 151 164 97 293 506 544 644 543 599 686 1114
1584 1421 1395 1422 1267 1397 1772 1592 1417 1739 1582 1491 1364 1226 1163 1232 1314 1210 1132 1094 990 815 971 891 1044 1029 644 652 786 812 737 1013 905 622 682 623 916 551 616 578 473 536 442 357 177 337 313 353 330 204 197 153 39 134 258 346 682 562 544 527 507 889
1269 1625 1220 1180 1269 1160 1095 1004 900 1113 1241 1178 999 965 1082 1190 1272 1018 833 854 1002 1008 943 796 956 847 971 855 874 777 841 1239 883 875 906 981 1141 1023 442 614 485 519 363 356 224 228 319 223 211 259 254 218 201 0 214 376 464 638 546 584 500 675
1387 1260 1141 1146 1378 974 1038 932 874 1177 1295 1041 925 905 983 1048 1154 918 890 970 918 969 937 655 968 817 844 933 1108 1272 1320 1552 1055 1389 1372 1345 948 1189 632 342 342 381 511 313 383 341 338 212 315 338 356 304 294 349 54 272 362 556 606 652 503 550
1071 1209 1184 1091 1136 948 1175 1214 883 1059 1002 927 880 818 762 884 948 846 851 1019 849 828 932 780 885 943 906 931 1154 1348 1396 1648 1455 1701 1281 1068 1310 1249 1070 438 368 309 437 391 382 406 297 305 369 453 454 446 297 378 343 146 283 370 720 610 540 513
580 796 802 810 897 914 921 1265 1000 991 958 890 710 729 772 810 1031 1092 853 794 936 864 931 822 943 969 1004 949 1025 1202 1521 1692 1836 1747 1380 1236 1136 1214 1053 1043 522 422 577 335 391 437 408 591 650 580 622 597 576 540 340 325 385 301 556 622 544 500
419 443 436 348 332 516 702 934 1005 1004 981 675 542 624 669 799 1041 1043 776 967 901 928 815 849 1061 1079 1052 940 1151 1403 1244 1445 1755 1493 1404 1334 1374 1278 1110 943 772 489 287 314 572 723 690 719 594 676 639 533 488 554 410 372 333 164 270 345 626 617
665 481 402 320 293 574 958 1006 1028 1074 856 692 556 590 640 788 863 854 848 952 812 770 760 835 743 1012 1034 1350 1397 1310 1146 1553 1359 1324 1421 1269 1179 1201 1252 1259 1168 691 472 406 626 729 666 495 554 598 405 468 506 500 440 304 314 266 362 287 389 722
628 625 640 586 312 365 541 511 836 845 787 729 665 569 575 579 516 622 592 695 688 640 498 759 1082 1129 1523 1428 1367 1060 1395 1580 1560 1492 1390 1327 1228 1206 1398 1139 1039 972 599 625 751 869 805 811 752 734 604 568 494 378 520 401 341 381 447 257 273 301
805 641 572 457 384 277 153 109 9 384 761 690 684 612 650 684 662 658 570 466 604 771 702 745 671 1134 1426 1215 1037 1010 1177 1518 1460 1523 1412 1295 1102 1236 1333 1143 1046 944 737 802 886 890 871 910 973 995 1198 1209 1144 862 731 666 527 479 290 223 252 293
736 604 362 364 513 70 0 0 0 0 190 654 637 664 699 720 771 815 715 593 732 850 837 832 923 876 1198 1278 1070 1009 1213 1338 1551 1400 1215 1165 1016 1346 1451 1292 983 812 754 675 722 909 886 802 815 1010 1112 1097 1084 819 922 687 659 346 223 269 235 258
504 256 453 365 25 0 0 0 0 0 0 460 559 606 591 624 655 699 814 911 961 1075 1137 1092 962 736 1016 1130 1223 1274 1375 1465 1355 1358 1173 1032 965 1225 1291 1237 911 724 813 741 582 680 692 679 654 598 660 599 660 690 783 759 490 209 391 116 108 154
432 642 625 127 0 0 0 7 0 0 0 0 5 162 0 122 196 0 231 1 371 336 59 857 928 745 850 1668 1404 1398 1402 1414 1400 1337 1323 1080 1025 1102 1028 1049 884 766 724 657 566 581 656 564 564 664 620 663 479 712 673 730 280 148 475 106 24 0
599 632 585 245 62 40 87 41 0 0 0 0 0 0 0 0 0 0 19 87 46 20 10 38 156 746 1094 1133 1326 1319 1144 1054 1248 1270 1272 1169 1074 970 823 843 829 792 762 658 565 570 420 514 435 421 564 446 81 388 904 501 62 20 580 257 10 0
570 454 446 426 678 412 155 129 8 0 0 0 0 0 0 0 0 0 0 0 0 0 0 0 0 433 803 1072 1273 1319 1215 1110 1130 1129 1076 1043 1003 951 759 876 752 756 658 587 620 532 394 477 448 493 430 210 22 2 272 471 534 253 564 209 57 48
460 446 489 643 138 0 0 0 0 0 0 0 0 0 0 0 0 0 0 0 0 0 0 0 0 0 42 742 920 1063 1053 868 892 955 922 864 938 948 805 823 742 730 539 547 420 509 473 567 418 330 385 19 292 54 0 399 210 626 661 439 1 8
426 511 649 355 15 0 0 0 0 0 0 0 0 0 0 0 0 63 0 0 0 0 0 0 0 0 0 0 285 636 604 547 610 604 720 836 867 796 787 779 616 581 565 509 478 516 218 578 280 450 124 34 0 0 21 371 176 517 372 387 332 110
387 492 355 56 2 0 0 0 0 0 0 0 0 0 0 0 0 0 0 0 0 0 0 0 0 0 0 0 0 0 0 0 0 63 776 874 943 706 753 749 734 708 652 500 514 438 373 394 357 357 398 517 432 28 136 390 23 35 382 550 227 214
364 467 364 165 46 2 0 0 0 0 0 0 0 0 0 0 0 0 0 0 0 0 0 0 0 0 0 0 0 0 0 0 0 0 0 0 0 222 292 703 506 373 562 512 461 359 182 199 337 124 277 308 276 205 376 262 147 90 7 392 285 1
435 317 475 182 170 5 0 0 0 0 1 4 0 0 0 0 0 0 0 0 0 0 0 0 0 0 0 0 0 0 0 0 0 0 0 0 0 0 0 0 0 0 6 40 5 4 0 0 102 18 19 1 6 77 354 314 281 100 11 7 7 520
546 233 484 154 169 89 0 0 0 0 88 1 0 0 0 0 0 0 0 0 0 0 0 0 0 0 0 0 0 0 0 0 0 0 0 0 0 0 0 0 0 0 0 0 3 2 0 3 7 0 0 18 3 44 61 35 86 25 63 6 0 7
526 405 501 177 164 35 0 0 0 4 8 4 0 0 0 0 0 0 0 0 0 0 0 0 0 0 0 0 0 0 0 0 0 0 0 0 0 0 0 0 0 0 0 0 0 0 0 0 0 0 12 77 45 34 199 184 226 111 63 9 0 0
452 388 500 202 183 10 0 0 0 0 0 0 0 0 0 0 0 0 0 0 0 0 0 0 0 0 0 0 0 0 0 0 0 0 0 0 0 0 0 0 0 0 0 0 0 0 0 0 0 0 0 0 0 0 0 0 0 0 0 0 0 0
564 482 502 332 181 10 0 5 3 0 0 0 0 0 0 0 0 0 0 0 0 0 0 0 0 0 0 0 0 0 0 0 0 0 0 0 0 0 0 0 0 0 0 0 0 0 0 0 0 0 0 0 0 0 0 0 0 0 0 0 0 0
497 417 463 23 10 19 0 6 10 3 0 0 0 0 0 0 0 0 0 0 0 0 0 0 0 0 0 0 0 0 0 0 0 0 0 0 0 0 0 0 0 0 0 0 0 0 0 0 0 0 0 0 0 0 0 0 0 0 0 0 0 0
561 484 491 348 69 54 0 8 3 2 0 1 0 0 0 0 0 0 0 0 0 0 0 0 0 0 0 0 0 0 0 0 0 0 0 0 0 0 0 0 0 0 0 0 0 0 0 0 0 0 0 0 0 0 0 0 0 0 0 0 0 0
490 415 488 349 187 260 89 1 91 2 0 0 0 0 0 0 0 0 0 0 0 0 0 0 0 0 0 0 0 0 0 0 0 0 0 0 0 0 0 0 0 0 0 0 0 0 0 0 0 0 0 0 0 0 0 0 0 0 0 0 0 0
539 440 552 152 244 271 233 88 274 37 0 3 0 0 0 1 0 0 0 0 0 0 0 0 0 0 0 0 0 0 0 0 0 0 0 0 0 0 0 0 0 0 0 0 0 0 0 0 0 0 0 0 0 0 0 0 0 0 0 0 0 0
572 378 190 75 39 386 320 167 290 24 0 5 0 0 0 0 2 0 1 0 0 0 0 0 0 0 0 0 0 0 0 0 0 0 0 0 0 0 0 0 0 0 0 0 0 0 0 0 0 0 0 0 0 0 0 0 0 0 0 0 0 0

ECMWFFLT2_con_mucape_015.txt.gz
CAPE
2205 2218 2311 2331 2344 2408 2541 2640 2538 2455 2474 2418 2321 2396 2292 2358 2240 2226 2096 2185 1973 1847 1858 1876 1799 1717 1843 1749 1746 1854 1826 1693 1673 1639 1585 1588 1540 1500 1391 1180 1067 917 1040 1108 1226 1029 800 984 1068 1225 1142 752 725 596 615 548 404 400 398 454 467 284
1930 2002 2269 2259 2314 2407 2526 2439 2385 2464 2484 2159 2261 2358 2224 2056 1928 1991 1982 1872 1710 1660 1756 1808 1703 1856 1771 1851 1821 1840 1686 1601 1674 1646 1609 1590 1610 1540 1481 1393 1331 1174 1162 1129 980 695 12 158 446 721 793 531 325 547 656 542 406 418 403 417 364 309
1667 1877 1897 2166 2304 2487 2407 2332 2426 2447 2269 2180 2388 2254 2059 1950 1950 1882 1850 1715 1630 1602 1599 1622 1799 1763 1700 1913 1832 1798 1781 1805 1772 1861 1663 1688 1654 1608 1509 1497 1563 1430 1338 1160 797 526 0 0 0 145 259 299 390 510 631 525 398 379 398 380 284 552
1888 2226 2234 2349 2408 2463 2303 2319 2354 2325 2229 2224 2073 2160 1991 1916 1915 1811 1698 1601 1577 1524 1437 1635 2045 1979 1741 1792 1840 1905 1949 1951 1989 1808 1772 1776 1644 1582 1521 1469 1537 1638 1489 1108 754 504 5 0 0 207 281 324 380 479 512 399 334 386 394 487 257 815
2255 2276 2301 2367 2349 2326 2280 2340 2305 2212 2198 2128 1974 1861 1988 1936 1854 1762 1608 1534 1526 1430 1294 1438 1628 1508 1565 1570 1828 1871 1899 1867 1802 1740 1677 1574 1518 1459 1405 1373 1430 1509 1443 1218 924 549 221 168 2 190 285 379 389 400 445 322 320 355 352 472 317 930
2271 2248 2293 2290 2219 2231 2264 2291 2265 2158 2073 2054 1914 1708 1902 1913 1795 1736 1582 1507 1495 1418 1214 1210 1572 1391 1507 1424 1677 1714 1885 1795 1667 1685 1646 1524 1534 1491 1301 1278 1351 1373 1344 1293 1131 855 565 238 36 9 86 344 317 301 398 299 278 332 341 466 461 1181
2264 2230 2225 2212 2189 2272 2225 2197 2263 2083 1997 1983 1948 1848 1856 1844 1721 1694 1649 1521 1426 1371 1177 1183 1446 1391 1412 1242 1421 1588 1795 1757 1528 1548 1641 1281 1370 1462 1376 1302 1239 1177 1099 1052 964 779 457 149 56 0 198 295 300 346 389 347 340 390 369 499 663 1246
2215 2191 2198 2213 2195 2182 2135 2173 2196 2127 1932 1956 1983 1862 1795 1787 1720 1629 1529 1394 1238 1200 1163 1162 1243 1219 1175 1205 1300 1528 1579 1632 1402 1415 1485 1313 1250 1399 1385 1330 1210 1070 1000 846 719 457 65 0 140 4 220 319 337 307 392 413 408 429 472 546 742 1294
2226 2224 2206 2224 2175 2136 2081 2165 2189 1992 1990 1975 1876 1895 1828 1826 1750 1704 1549 1356 1292 1186 1122 1066 1190 1145 1092 1186 1233 1416 1467 1585 1418 1324 1241 1028 821 955 1167 1280 1200 1016 877 754 594 302 0 0 0 0 205 290 313 292 351 350 382 437 545 598 775 1242
2292 2295 2279 2248 2163 2141 2099 2200 2172 2068 2043 1951 1976 1937 1901 1892 1836 1767 1713 1573 1404 1285 1199 1103 1079 1240 1120 1133 1106 1241 1418 1484 1408 1290 1222 1053 881 847 858 867 957 918 741 620 578 468 285 201 0 0 0 215 318 290 353 349 398 451 474 627 817 940
2353 2377 2279 2287 2197 2148 2152 2150 2081 2074 2064 1934 1915 1974 1873 1815 1824 1833 1806 1661 1602 1407 1334 1144 972 1066 1201 1173 1084 1066 1149 1158 1139 1190 1173 1143 1077 1059 1001 937 794 688 582 566 543 482 427 210 0 0 10 56 236 18 358 444 475 498 473 628 790 784
2422 2434 2390 2248 2183 2191 2194 2162 1972 2027 2016 1860 1857 1874 1762 1662 1626 1559 1519 1450 1476 1468 1323 1189 1068 1049 1142 1069 1117 1049 989 992 995 944 913 940 1022 1039 1002 860 700 622 571 569 542 526 434 55 2 269 62 69 84 2 379 503 514 523 501 583 696 712
2564 2538 2487 2386 2267 2200 2160 2158 2110 2089 2024 1916 1887 1838 1637 1558 1496 1443 1411 1324 1272 1252 1210 1111 1057 997 1108 1205 1182 1003 850 846 818 898 909 791 791 907 930 964 894 713 580 584 526 468 363 0 245 292 243 236 252 171 393 550 544 512 496 490 556 622
2653 2596 2536 2490 2407 2326 2216 2142 2120 2092 2022 1971 1952 1845 1720 1649 1566 1492 1372 1323 1318 1273 1206 1136 1072 1011 917 1111 1123 770 731 779 853 1080 1014 914 964 972 993 946 813 545 692 586 561 477 383 100 51 218 321 264 275 258 402 559 549 490 456 476 484 544
2630 2596 2555 2478 2415 2378 2267 2122 2022 2024 2012 1942 1910 1845 1713 1664 1608 1551 1451 1415 1397 1330 1186 1065 1038 1037 934 960 975 752 761 899 1103 1387 1252 1214 1182 1107 1080 966 636 511 652 637 582 498 434 210 26 34 369 319 317 321 326 416 466 472 470 517 487 555
2434 2430 2364 2267 2256 2178 2092 2028 2003 1731 1429 1491 1547 1475 1410 1397 1369 1302 1286 1288 1197 1065 1055 1052 1062 1094 1058 859 866 812 892 1090 1354 1517 1469 1580 1464 1281 1119 986 774 586 540 629 607 534 512 454 190 347 339 398 359 361 373 356 346 485 504 568 533 519
2111 2149 2066 1875 1869 1718 1827 1956 1543 1307 1379 1331 1222 1173 1195 1167 1130 1096 1073 1117 1048 997 1020 1072 1091 1050 1002 879 835 869 889 1014 1271 1426 1612 1525 1353 1386 1175 1039 868 654 590 614 586 574 571 519 420 386 358 341 385 419 396 412 394 358 333 517 566 545
1974 1920 1777 1631 1594 1530 1583 1449 1186 1205 1205 1009 904 868 903 927 976 1063 1160 1181 1015 870 931 944 978 992 982 936 882 926 884 858 1258 1363 1523 1418 1368 1416 1310 1083 961 708 604 487 530 541 534 511 447 388 382 204 272 349 418 404 394 378 329 278 456 494
1885 1748 1620 1380 1408 1340 1414 1378 1187 1156 906 756 721 797 781 752 822 1008 1153 1077 940 913 884 919 978 975 964 911 964 964 1174 1055 1154 1292 1110 1084 1039 1365 1335 1182 1074 732 560 474 469 524 503 447 479 400 383 335 269 2 1 41 223 302 219 271 372 296
1705 1601 1202 1029 935 1208 1425 1223 1134 994 692 627 704 730 777 891 926 919 855 733 692 664 606 592 784 898 900 931 982 1172 1192 972 1075 1044 1043 1011 1029 1149 1286 1213 1052 792 659 692 656 677 690 565 424 410 527 562 215 46 8 113 8 20 6 9 19 232
1454 1321 886 907 1055 1257 1235 1160 1009 788 572 616 648 704 728 659 593 535 544 580 663 708 658 606 651 723 900 1005 951 794 938 884 931 990 1064 1028 979 998 1015 785 928 805 798 781 823 882 838 620 440 380 248 317 117 363 358 27 0 0 4 4 20 18
1140 937 952 1017 1089 1098 1051 997 892 722 616 622 678 654 613 603 586 550 590 603 596 688 630 480 440 435 475 935 778 746 845 774 714 944 923 834 912 864 973 853 783 746 824 811 773 728 535 633 561 520 496 44 0 106 218 433 328 0 0 0 1 0
842 869 804 752 732 759 850 913 831 762 692 673 718 634 575 640 631 621 524 503 520 509 595 694 636 512 550 1037 947 1000 880 1004 868 802 816 665 755 805 876 813 718 697 812 739 702 705 638 581 435 548 260 0 63 0 132 0 236 484 357 0 5 9
547 567 492 35 30 0 488 838 826 728 706 717 657 607 489 340 26 0 0 18 252 266 325 512 789 526 803 1055 1136 1173 927 899 869 824 862 891 949 1024 812 540 718 724 657 726 668 578 646 552 390 390 411 10 0 0 0 0 1 0 0 215 11 0
381 197 0 10 0 0 0 462 610 704 515 384 341 58 0 0 0 30 0 0 0 0 0 0 542 568 771 959 1010 972 926 964 991 893 917 915 975 994 916 820 764 774 631 556 539 496 527 425 298 0 14 0 0 0 0 2 0 0 204 0 4 0
12 0 0 0 0 0 0 307 488 465 360 86 0 0 0 0 0 0 0 0 0 0 0 0 254 478 635 851 935 980 925 817 805 785 732 785 826 807 863 848 737 748 642 549 533 460 462 492 163 162 19 0 0 15 15 5 1 2 0 449 243 0
1 0 0 0 0 0 0 335 434 345 282 41 0 0 0 0 0 0 0 0 0 0 0 0 0 151 392 469 457 491 505 438 458 554 644 614 682 777 746 736 613 503 587 546 384 322 22 389 374 425 2 0 41 232 8 6 8 4 83 132 200 249
247 1 0 0 0 0 0 168 378 303 188 0 0 0 0 0 0 0 0 0 0 0 0 0 0 0 0 0 0 0 0 0 331 565 699 586 542 623 588 661 635 609 513 417 370 318 391 364 426 410 41 350 261 420 342 18 31 0 0 1 0 0
538 429 0 0 0 0 0 374 112 82 0 0 0 0 0 0 0 0 0 0 0 0 0 0 0 0 0 0 0 0 0 0 0 443 133 110 418 474 434 0 98 370 486 484 454 348 387 438 379 474 423 400 354 203 0 155 295 109 0 0 0 0
584 590 399 0 0 0 0 0 0 0 0 0 0 0 0 0 0 0 0 0 0 0 0 0 0 0 0 0 0 0 0 0 0 0 0 0 0 0 0 0 0 0 0 0 21 265 306 331 358 321 337 390 331 270 294 126 136 0 0 0 14 0
474 500 408 0 246 321 334 0 0 0 0 0 0 0 0 0 0 0 0 0 0 0 0 0 0 0 0 0 0 0 0 0 0 0 0 0 0 0 0 0 0 0 0 0 0 0 0 0 0 0 0 202 304 194 34 0 0 0 0 0 0 0
188 388 398 445 70 18 203 0 0 0 0 0 0 0 0 0 0 0 0 0 0 0 0 0 0 0 0 0 0 0 0 0 0 0 0 0 0 0 0 0 0 0 0 0 0 0 0 0 0 0 0 0 0 0 0 0 0 0 0 0 0 0
305 263 417 363 0 0 0 1 5 0 0 0 0 0 0 0 0 0 0 0 0 0 0 0 0 0 0 0 0 0 0 0 0 0 0 0 0 0 0 0 0 0 0 0 0 0 0 0 0 0 0 0 0 0 0 0 0 0 0 0 0 0
434 402 395 325 108 56 0 0 0 2 0 0 0 0 1 0 0 0 0 0 0 0 0 0 0 0 0 0 0 0 0 0 0 0 0 0 0 0 0 0 0 0 0 0 0 0 0 0 0 0 0 0 0 0 0 0 0 0 0 0 0 0
661 571 512 474 366 260 26 31 6 0 3 0 0 0 0 0 0 0 0 0 0 0 0 0 0 0 0 0 0 0 0 0 0 0 0 0 0 0 0 0 0 0 0 0 0 0 0 0 0 0 0 0 0 0 0 0 0 0 0 0 0 0
927 738 608 536 448 385 12 1 0 0 3 5 4 0 0 0 0 0 0 0 0 0 0 0 0 0 0 0 0 0 0 0 0 0 0 0 0 0 0 0 0 0 0 0 0 0 0 0 0 0 0 0 0 0 0 0 0 0 0 0 0 0
1190 953 739 637 589 534 0 0 0 0 14 15 10 0 0 0 0 0 0 0 0 0 0 0 0 0 0 0 0 0 0 0 0 0 0 0 0 0 0 0 0 0 0 0 0 0 0 0 0 0 0 0 0 0 0 0 0 0 0 0 0 0

ECMWFFLT2_con_mucape_021.txt.gz
CAPE
1858 1866 1847 1996 2198 2072 2120 2191 2284 2320 2360 2410 2462 2420 2360 2378 2379 2343 2268 2100 1955 2422 2516 1890 1761 1552 1920 1690 1920 1817 1788 1756 1735 1620 1632 1478 1366 1195 1085 1141 1206 1213 983 755 514 370 537 575 663 819 955 1438 1318 1458 1309 1140 932 813 809 842 708 739
2132 2188 2244 2066 2104 2250 2140 2209 2004 2349 1952 2031 2424 2387 2246 2007 2027 1984 2120 2251 2446 2343 1985 1915 1726 1426 1804 1763 1733 1843 1787 1672 1599 1613 1616 1546 1288 1110 1103 1261 1249 1188 650 476 364 505 465 374 406 644 887 1279 1570 1460 1352 1162 936 781 790 864 688 761
2044 2112 1823 2391 2094 2192 2415 2264 1709 1600 2384 1854 1982 2141 1907 1931 1966 2237 2252 2138 2387 2311 1795 1688 1906 1815 1638 1840 1894 1895 1778 1661 1566 1570 1550 1683 1581 1414 1363 1486 1419 1037 649 338 1066 689 378 322 344 360 777 1319 1582 1450 1411 1211 992 928 748 817 705 635
1436 1949 1654 1974 1690 1552 1564 1375 1603 1643 1796 2190 2060 1948 1948 1984 1942 2101 2002 1835 1840 1831 1818 1863 1861 1929 1667 1777 1822 1876 1870 1808 1691 1653 1722 1468 1607 1567 1309 1220 1180 957 916 873 945 760 320 310 262 522 1036 1355 1430 1448 1400 1278 964 958 844 727 598 620
1916 2012 1700 1637 1494 1518 1668 1798 1791 1544 1694 1729 2030 2017 1969 2064 2040 1997 1909 1870 1783 1794 1711 1808 2335 2258 1701 1679 2028 2014 1810 1271 1130 1373 1482 1201 1076 1268 1184 1042 1077 923 871 888 876 940 594 314 267 354 641 1329 1412 1420 1348 1319 1190 1096 926 898 784 603
1708 1819 1763 1529 1590 1567 1692 1767 1899 1809 1800 2089 1995 2090 2009 2027 2016 1932 1977 1954 1858 1759 1723 1854 2385 2220 1938 1893 1873 1803 1693 1418 1364 1370 1322 994 978 924 854 879 1008 847 868 760 923 930 716 538 267 353 354 956 1408 1532 1297 1162 1160 1289 1090 933 788 674
1453 1910 1516 1923 1610 1560 1616 1877 1847 1797 1968 1880 2077 1895 1931 2122 2066 2018 2021 2017 1877 1794 1807 1830 2144 2186 1942 1850 1633 1541 1380 1356 1413 1234 1300 906 996 873 897 819 818 869 948 968 776 722 629 587 609 452 369 437 1006 1345 1433 1237 1279 1299 1130 986 771 858
1698 1635 1859 1784 1909 1779 1816 2082 1848 1803 2167 1942 1946 1875 1972 2048 2021 2131 2070 2131 2042 2047 1833 1517 2156 2050 1920 1947 1904 1454 1254 1311 1412 1331 1204 1122 845 865 912 1106 1161 1014 812 669 446 720 689 595 668 632 541 520 576 1048 1414 1314 1341 1366 1196 1112 830 1082
1723 1670 1823 1936 1811 1844 1775 1837 1868 1931 1955 2093 2074 2032 2020 1840 1962 1991 2052 2160 2036 2045 2091 2057 2031 1993 1993 2053 1987 1776 1623 1476 1372 1464 1319 1390 934 1214 1212 1151 1157 904 857 721 802 887 820 629 720 786 650 582 603 735 1210 1410 1459 1362 1202 1166 947 1169
1680 1662 1823 1968 1844 1802 1845 1742 1800 1933 2014 2242 2153 2080 2046 1930 1903 1889 2044 2091 2185 2156 1997 1956 1952 1846 1959 1918 1909 1876 1864 1740 1507 1375 1203 1433 1643 1469 1525 1259 1224 1038 603 811 839 945 980 590 484 631 639 631 692 631 924 1289 1316 1273 1280 1332 1209 1261
1847 2006 1896 1811 1917 1867 1994 1804 2017 1983 1909 2280 2212 2156 2035 1975 1840 1944 2113 1968 1967 1931 1908 1961 1850 1758 1825 1820 1980 2021 1998 1636 1662 1593 1612 1696 1507 1310 1431 1515 1483 1117 862 913 982 1001 801 656 597 558 648 495 654 796 962 1219 1216 1311 1258 1369 1235 1432
1840 2024 2072 1875 1867 1768 1826 1936 1972 1808 1931 2330 2194 2116 1989 1748 1809 1812 1711 1657 1591 1518 1509 1763 1771 1584 1425 1484 1632 1838 1704 1741 1735 1530 1550 1575 1597 1460 1533 1384 1488 1679 1681 1326 1105 1018 949 819 770 626 652 652 736 963 1038 1271 1308 1452 1346 1465 1374 1442
1906 2094 2042 1941 1559 1548 1810 1829 1803 1790 2055 2251 2161 2030 1784 1647 1649 1697 1730 1744 1631 1572 1500 1341 1248 1022 1036 990 1320 1420 1412 1566 1410 1360 1347 1433 1496 1591 1653 1659 1540 1520 1404 1296 1203 1119 828 1095 1052 1012 990 790 947 866 896 1012 1256 1272 1398 1326 1243 1426
2145 1992 2050 1864 1902 1725 1794 1886 1970 1876 1939 2205 1981 2004 1848 1613 1503 1530 1542 1495 1191 1103 1216 1487 1466 948 994 887 794 1123 1183 1120 1074 994 1046 1267 1262 1388 1727 1644 1394 1269 1139 1142 1238 1209 1119 1034 1044 987 1134 921 1061 1207 1004 903 1301 1398 1389 1272 1348 1375
2179 2187 2071 2059 1949 1946 1927 1917 2005 2025 1971 2007 1898 1837 1697 1613 1534 1442 1319 1204 1188 1179 1095 1114 1082 926 970 1150 1175 1108 1143 1111 947 1113 1381 1320 1352 1286 1740 1606 1396 1166 1206 1427 1356 962 1001 989 1082 1092 1312 1283 1030 972 1162 1178 1201 1201 1134 1350 1380 1379
2281 2269 2282 2217 2226 2141 1928 1973 1990 2029 2080 2027 1928 1875 1808 1725 1574 1316 1167 1105 1046 1004 846 944 820 614 997 1002 1123 1122 1101 988 852 1356 1537 1477 1555 1597 1684 1702 1486 1398 1385 1428 1317 1194 1041 1090 914 827 1000 1217 1258 1290 1339 1331 1224 1097 1111 1095 1029 1288
2423 2372 2277 2141 2026 2128 2266 2289 2100 2187 1945 1909 1898 1840 1732 1609 1500 1355 1247 1110 1063 1014 762 847 784 794 779 1154 1137 1064 1053 875 1078 1283 1516 1418 1513 1496 1844 1716 1520 1368 1344 1448 1153 1016 913 786 730 784 917 1086 1074 1210 1244 1433 1151 1194 1085 1303 1159 1138
2532 2438 2188 2166 2260 2460 2470 2261 2100 2030 1986 2019 2008 1810 1484 1315 1132 1084 1066 1020 1004 940 906 740 835 826 1088 935 1023 1129 978 785 782 1211 1256 1402 1432 1232 1436 1808 1651 1434 1297 1299 1163 828 746 719 776 865 774 949 983 1036 957 1150 1144 1096 1308 1104 1090 1131
2383 2305 2238 2264 2474 2431 2264 2188 2090 2018 2055 1829 1439 1394 1201 1088 1024 947 942 1017 1029 934 866 841 870 1016 914 860 991 1163 1082 888 874 1190 997 1042 1274 1316 1306 1510 1608 1046 1237 1401 1251 855 762 826 915 816 595 523 786 1025 1061 855 832 951 1032 1116 1116 951
2413 2497 2512 2555 2396 2228 2039 1922 1792 1864 1592 1249 1186 1008 953 961 885 979 1001 1068 1012 919 898 877 852 919 948 1065 1071 1100 1088 952 999 986 1171 1190 1186 1220 1346 1454 1309 1037 1011 785 707 719 701 710 923 522 435 443 580 780 851 750 858 710 621 836 966 930
2544 2589 2588 2554 2432 2121 1854 1696 1630 1646 1818 1318 1094 925 936 921 987 1015 1056 989 945 852 912 819 766 776 848 926 874 955 980 990 1143 1166 1102 1118 1030 1032 1175 1316 1161 1123 1135 969 724 724 520 804 635 399 350 386 563 572 602 517 847 735 593 550 660 872
2567 2631 2586 2451 2145 1818 1762 1788 1860 1756 1611 1342 1293 1287 1201 1100 983 801 760 759 960 1019 985 1026 721 717 869 972 1033 1002 1035 1143 1098 1098 1013 896 870 767 856 860 850 756 862 1121 728 603 575 849 574 726 576 448 470 516 483 674 630 556 550 563 752 854
2639 2468 2358 2202 1843 1812 1581 1584 1580 1373 1406 1046 861 977 1068 968 792 725 698 750 932 1271 990 1037 895 751 792 728 834 808 753 772 830 762 750 858 835 860 861 951 1085 940 595 841 649 574 536 668 843 611 716 596 576 654 528 740 678 431 337 842 830 512
2570 2475 2286 2055 1810 1618 1528 1493 1199 1011 859 1057 882 785 775 730 628 476 299 275 302 836 1116 1144 753 776 788 763 810 871 846 808 780 832 829 820 730 714 802 911 1031 1073 935 625 587 563 409 492 532 524 515 832 624 538 612 472 577 476 344 465 529 458
2304 2329 2181 1991 1707 1469 1382 1343 967 718 679 685 750 787 623 527 398 116 25 133 167 433 1228 1116 1068 954 929 762 799 892 846 675 727 704 764 685 742 703 774 868 989 924 1084 1177 687 573 566 369 551 897 944 282 159 267 346 522 398 366 414 468 424 408
2037 2150 2074 1846 1576 1328 1255 1115 898 854 835 713 580 675 647 330 160 186 59 0 3 186 1031 1308 1179 1156 1128 972 1013 860 734 786 794 668 738 776 590 648 629 749 799 728 737 985 928 544 576 297 324 606 758 1385 1366 908 337 476 519 14 322 386 332 36
1879 2029 2002 1782 1449 1215 1274 1364 1597 1666 1628 1350 970 434 245 294 302 19 0 0 4 37 438 1194 1260 1228 1179 1085 1092 838 757 834 754 643 657 701 661 781 660 725 680 650 1036 742 616 765 841 425 270 350 463 728 683 685 937 332 398 384 188 3 0 0
1673 1822 1878 1725 1312 1246 1380 1472 1624 1461 1306 1168 1054 392 262 76 1 0 0 0 0 2 132 508 930 864 1036 1088 1070 896 709 632 686 598 674 662 573 643 766 697 660 902 728 758 807 566 692 667 820 486 487 512 586 563 685 764 508 496 15 18 24 14
1396 1466 1593 1538 1182 1127 1267 1351 1360 1147 834 498 478 277 77 0 0 0 0 0 0 0 20 19 482 334 352 618 802 1019 910 852 696 750 718 697 699 666 806 763 670 667 704 762 750 538 659 572 972 716 573 488 578 584 640 759 594 347 8 14 0 0
1277 1251 1355 1265 1054 1026 948 1017 1091 1062 874 466 357 140 25 0 0 0 0 0 9 84 78 93 6 2 72 125 472 770 986 972 694 643 602 652 455 480 547 634 668 746 616 760 635 649 758 797 865 944 901 864 868 585 677 625 612 226 71 20 0 0
1265 1188 1192 1078 1002 907 782 924 1031 978 825 566 463 224 13 0 0 0 0 0 14 16 39 41 23 8 13 72 283 328 519 510 496 362 243 354 580 471 339 368 304 415 521 552 473 324 165 270 277 309 448 800 822 738 538 548 296 188 7 0 0 0
1212 1117 964 836 748 586 493 484 596 730 765 716 591 388 244 35 0 0 0 0 0 2 1 3 19 57 11 2 88 87 12 37 132 228 208 150 118 146 51 17 48 76 21 76 228 334 328 251 349 347 354 187 36 52 95 65 26 33 6 0 0 0
1178 1052 861 703 624 430 217 31 17 447 618 681 733 653 431 143 4 0 0 0 0 6 7 28 50 51 0 0 0 9 13 22 11 5 2 5 4 0 0 0 0 1 10 74 150 167 128 208 124 18 0 0 0 0 0 0 0 0 0 0 0 0
1079 931 842 629 530 276 34 5 153 423 521 365 444 450 249 34 0 3 0 0 0 13 58 131 34 35 0 0 0 0 0 0 0 0 0 0 0 0 0 0 0 0 0 0 0 0 0 0 0 0 0 0 0 0 0 0 0 0 0 0 0 0
1086 1015 878 658 440 218 204 176 213 242 398 400 308 270 188 98 0 0 0 0 0 0 10 0 0 0 0 0 0 0 0 0 0 0 0 0 0 0 0 0 0 0 0 0 0 0 0 0 0 0 0 0 0 0 0 0 0 0 0 0 0 0
860 862 837 782 497 396 413 364 151 192 298 25 176 32 10 13 44 9 4 18 0 0 0 0 0 0 0 0 0 0 0 0 0 0 0 0 0 0 0 0 0 0 0 0 0 0 0 0 0 0 0 0 0 0 0 0 0 0 0 0 0 0
876 925 1018 807 454 525 610 526 327 356 197 114 74 181 118 16 13 0 4 0 0 0 0 0 0 0 0 0 0 0 0 0 0 0 0 0 0 0 0 0 0 0 0 0 0 0 0 0 0 0 0 0 0 0 0 0 0 0 0 0 0 0

ECMWFFLT2_con_mucape_024.txt.gz
CAPE
1394 1161 2056 2194 2540 1473 1155 1369 1408 1437 1700 1872 1773 1860 2222 2194 2154 2146 2130 2066 1960 1751 1987 1872 1697 1496 1851 1585 1922 1782 1736 1741 1579 1518 1463 1460 1366 1259 1320 1252 1040 854 628 725 598 607 646 726 790 897 1123 1724 1404 1743 1491 1278 1281 1081 1044 986 880 707
1786 1927 1077 1004 969 1209 739 1238 1475 1682 2001 1480 1332 1571 2122 1808 1747 1712 2226 2042 2283 2054 1910 1764 1750 1416 1876 1533 1786 1705 1750 1643 1591 1592 1508 1369 1303 1365 1376 1354 1108 877 458 644 620 636 401 586 498 1036 1280 1704 1821 1523 1275 1281 1207 1015 1019 1012 743 695
1202 1089 1159 1098 942 1016 1326 1022 1320 1339 1179 1345 1568 1658 1566 1568 1476 1573 1306 2058 2154 1987 1780 1838 1815 1256 1755 1190 1847 1668 1696 1650 1569 1592 1491 1493 1353 1395 1442 1476 1098 982 750 195 1170 425 423 562 659 586 1363 1808 1675 1274 1233 1185 1078 1047 1034 889 891 1004
1050 1313 1477 2088 1034 1619 1055 1519 1163 1047 1008 1214 2092 1361 1390 1229 1824 2067 2230 2314 2122 1865 1901 2191 1549 1467 1504 1158 1822 1777 1588 1616 1632 1618 1652 1651 1644 1598 1449 1330 1247 662 1184 921 344 250 326 433 666 1057 1311 1366 1396 1361 1210 1078 1010 1059 1017 726 753 1061
1390 1279 1434 1564 2097 1581 1156 1121 1066 970 1647 1511 1353 1333 1493 2078 2198 2255 2151 2178 1755 1966 1850 1833 1844 1453 1429 1505 933 1115 1130 947 580 652 1658 860 580 996 1389 1359 610 985 679 367 286 341 377 453 726 913 1132 1391 1451 1406 1241 1004 1136 1151 1087 1004 761 1150
1908 1807 1573 1233 1912 1772 2088 1850 1956 1880 1422 903 1744 1680 2044 2181 2282 2280 2202 2095 2036 2028 1858 2021 1909 1698 1636 1653 1575 1565 1363 1316 1138 651 437 657 864 742 556 897 686 511 414 412 307 314 390 438 662 827 888 1784 1735 1494 1240 1142 1163 1107 1233 1101 712 1144
1540 1823 1810 1822 1895 1206 1220 1213 1270 1342 1494 1093 1249 1388 1837 2269 2143 2163 2186 2108 2156 1919 1676 1906 1762 1709 1560 1608 1652 1679 1360 930 911 680 515 1000 1103 536 603 940 794 529 388 335 301 272 284 474 545 559 752 1354 1649 1471 1320 1106 1243 1264 1172 1154 912 1168
1313 1789 1795 1753 1254 1413 1481 1158 1248 1281 1286 1273 1118 1426 1300 1964 2070 1994 2119 2216 2165 1815 1610 1530 1579 1747 1652 1668 1768 1719 1409 1062 926 923 791 1047 1353 951 564 538 513 364 316 362 338 290 254 360 548 652 592 709 1335 1336 1463 1322 1365 1358 1198 1184 826 1287
1277 1592 1965 1927 1838 1730 1049 1051 1153 1378 1248 1148 1273 1008 1294 1944 2066 2168 2395 2136 2017 1894 1614 1633 1340 1579 1753 2167 2145 2026 1774 1449 1186 992 1070 1285 1418 1455 1141 560 422 358 448 362 411 388 363 378 513 680 734 750 847 1230 1510 1601 1724 1367 1283 1150 1155 1066
1506 1378 1591 1549 1320 1319 1747 1042 1149 1206 1044 1173 1092 1413 1632 2019 2194 2248 2142 1858 1918 1842 1814 1410 1278 1218 1891 2153 2224 2260 1905 1823 1584 1394 1105 1315 1586 1557 1367 1008 606 486 418 486 502 367 358 344 399 563 724 778 836 747 1434 1453 1507 1169 1302 1140 1052 888
1455 1586 1528 1168 1027 1123 1386 1377 964 1052 1015 1052 1826 2181 2250 2162 2156 2142 2130 1975 1436 1283 1091 880 937 991 1240 1499 1763 1303 1334 1441 1794 1262 1118 1638 1470 1359 1475 1113 845 644 588 649 581 366 297 319 384 462 548 538 676 744 954 1256 1270 1350 1261 1354 1196 1316
1532 1626 1013 1099 1410 1154 1217 1054 1175 1278 1814 1878 2416 2483 2167 2221 2310 2047 1312 1260 1248 1116 819 662 615 748 796 1514 994 808 907 1024 998 790 1013 810 550 963 1444 979 680 841 973 1041 624 468 401 418 532 507 554 499 621 634 698 905 804 1363 1097 1484 1390 1374
1358 1720 1332 1677 1967 1475 1188 1673 1984 1914 2152 2462 2465 2351 2215 2102 2215 1317 1274 1143 929 680 708 752 748 729 736 837 1429 1543 1271 1123 1012 963 878 832 745 838 1259 1207 904 956 1252 1203 888 616 405 494 661 681 611 667 707 559 602 679 781 1161 1492 1407 1152 1582
1364 1404 1671 1794 1834 2037 2131 1812 1669 1962 2264 2397 2369 2266 2025 1730 1832 1277 1007 991 849 697 580 500 517 526 672 899 1365 1547 1603 1611 1065 753 748 960 974 779 1090 1107 1009 957 970 1276 1284 1081 632 619 519 722 832 663 815 788 643 555 913 986 1101 1064 1375 1721
1822 1684 1895 1526 1886 2043 1709 1707 1844 2017 2221 2349 2278 2117 2000 1551 1738 1678 1060 1068 851 737 792 750 470 421 692 949 1227 1461 1608 1513 875 774 1398 1526 1022 710 1154 1491 1152 1014 897 1509 1572 1377 1230 1135 750 723 791 672 644 643 655 724 704 666 562 793 1565 1566
2062 1732 1738 2078 2143 1730 1886 2202 2488 2085 2730 2472 2267 2108 1989 1577 1482 1373 1531 1108 915 869 769 768 715 699 796 935 1227 1706 1689 1599 1475 1226 1400 913 1092 1573 1504 1583 1478 1332 1248 1444 1288 1282 1434 1647 1565 1590 1143 1009 857 599 841 1076 1082 796 778 989 766 1476
2000 1763 2034 2336 2023 2163 2222 2425 2436 2210 1910 2103 1830 1771 1738 1679 1596 1340 1494 1685 1499 1317 1225 926 942 631 735 968 1124 1466 1596 1484 1329 1258 1510 1376 1123 1093 1451 1435 1561 1614 1521 1473 1311 1272 1489 1512 1526 1428 1764 2055 1882 1411 1546 1722 1510 1533 1470 932 1057 1142
2065 2236 2818 2299 2210 2284 2289 2395 2222 2052 2171 1847 1738 1765 1743 1499 1397 1347 1337 1254 1564 1597 1329 1314 1244 1128 1230 1220 1291 1353 1118 1265 1398 1506 1508 1514 1473 1696 1690 1177 1877 1834 1494 1727 1550 1334 1367 1462 1367 1484 1561 1672 1478 1411 1442 1704 1529 1301 1193 803 1183 1279
2142 2821 2717 2424 2274 2223 2240 2128 2101 1955 1990 1822 1693 1602 1344 1408 1536 1287 1353 1408 1438 1531 1235 1358 1525 1519 1433 1270 1470 1291 1026 1034 1321 1451 1491 1541 1470 1770 1758 2040 1851 1915 2115 1593 1747 1612 1577 1515 1541 1456 1479 1371 1318 1426 1369 1382 1208 1358 1189 1433 1418 1112
2302 2845 2617 2296 2099 2220 2179 2123 2014 1967 1781 1638 1518 1317 1311 1314 1300 1254 1399 1355 1246 1492 1537 1486 1344 1501 1444 1612 1582 1297 1035 1150 1189 979 1196 1336 1405 1483 1504 1538 2009 1818 1998 1854 1698 1747 1778 1551 1559 1478 1265 1288 1294 1457 1479 1302 1350 1341 1125 953 1533 1404
2504 2627 2426 2168 2297 2337 2290 2122 1884 1848 1623 1445 1275 1449 1346 1208 1012 1114 1228 895 1175 1130 1338 1476 1596 1788 1742 1568 1725 1605 1324 1359 1452 1216 1135 964 1532 1516 1153 1229 1663 1642 1628 1705 1607 1723 1715 1655 1527 1358 1305 1340 1367 1190 912 898 1081 1118 1086 1089 1276 1308
2438 2544 2637 2605 2472 2279 2046 1865 1754 1498 1453 1140 1108 1024 985 1150 1268 1116 1201 1160 1076 1134 1296 1262 1226 1853 1977 1861 1773 1616 1595 1435 1341 1497 1566 1406 1562 1461 1497 1494 1506 1566 1520 1542 1752 1401 1564 1631 1409 1281 1214 1026 1050 1020 969 1044 684 563 658 654 772 785
2579 2669 2742 2621 2505 2092 1872 1884 1682 1432 1258 1098 1103 1050 925 1067 1186 1060 1252 982 1110 1171 1045 959 1067 1445 1809 1601 1744 1792 1750 1684 1623 1582 1521 1471 1533 1452 1507 1504 1506 1534 1557 1452 1098 1339 1653 1015 1131 1295 1264 954 535 711 962 1042 770 573 562 792 863 796
2741 2742 2725 2510 2102 1918 1854 2134 2047 1849 1708 1174 1340 1624 1424 1280 963 827 864 963 975 1160 974 869 740 711 814 1331 1848 1865 1967 1900 1710 1617 1601 1529 1403 1343 1341 1450 1346 1281 1508 1161 1029 976 1010 1583 1446 1426 1313 515 841 644 208 744 914 482 608 736 783 670
2837 2761 2533 2345 2046 1990 2001 2100 2246 2154 1913 1687 1410 1214 1082 914 777 379 165 483 591 999 824 727 706 686 548 766 795 1054 1226 1313 1607 1804 1743 1680 1500 1321 1255 1225 1307 1293 1279 1314 1212 860 807 1145 1556 1548 1542 947 898 582 269 829 806 709 855 718 702 648
2771 2581 2371 2362 2111 2040 2142 2029 1681 1391 1292 1301 1315 1266 1092 919 701 503 92 2 78 727 754 724 552 456 501 534 729 704 845 692 940 1040 1189 1502 1472 1288 1314 1176 1224 1155 671 1421 1430 1085 914 821 1068 1496 1354 1725 1312 520 591 753 726 533 759 673 300 100
2974 2640 2605 2383 2197 2308 2194 1993 1811 1510 1392 1214 1128 1179 1058 841 656 228 61 109 102 586 655 672 583 458 470 559 626 744 953 787 598 829 790 934 1048 1301 1025 1186 1180 1142 1102 911 1356 1349 719 961 1104 1151 1077 1285 1453 935 996 597 920 484 530 26 12 22
2793 2820 2746 2606 2379 2376 2238 2050 1848 1600 1276 1169 1168 1246 1184 957 574 217 87 50 142 268 574 473 470 412 359 345 459 466 637 826 638 504 654 563 743 806 893 1248 1315 1271 1068 1037 1001 805 1001 1230 1205 1201 1172 1275 763 912 987 717 937 578 406 90 14 4
2860 2939 2711 2710 2594 2506 2220 2154 1925 1603 1430 1255 1134 1003 734 461 385 211 154 200 225 197 430 616 455 462 365 249 236 275 481 592 679 636 546 602 895 1254 1588 1625 1517 1289 1130 1070 981 730 590 868 1061 1298 1254 1269 1087 883 833 847 954 808 343 9 5 8
2848 2797 2703 2630 2659 2504 2357 2128 1752 1606 1501 1279 998 738 550 454 389 283 214 246 208 227 216 226 271 435 290 143 183 158 204 576 640 454 238 704 884 1055 1393 1506 1626 1553 1354 1190 1140 1137 1046 921 1055 1497 1272 1235 1041 960 917 840 807 784 457 268 21 0
2662 2528 2465 2565 2537 2720 2410 2105 1685 1778 1481 1504 1170 856 606 454 291 180 74 97 127 82 195 106 126 253 295 141 109 72 201 580 704 516 233 158 243 211 596 774 994 1333 1564 1556 1343 1325 1183 995 982 809 923 885 989 908 994 889 808 730 641 430 60 0
2182 2278 2208 2046 2561 2518 2284 2202 2105 1828 1488 1558 1414 994 659 427 240 121 67 79 26 20 29 22 99 79 90 77 6 23 187 267 359 400 177 60 28 137 183 342 633 764 1010 1265 1434 1378 1410 1266 1130 1107 1091 978 974 960 904 923 792 575 384 244 65 24
1681 2082 2251 2368 2450 2330 2215 2043 1970 1687 1611 1527 1296 980 704 380 225 96 28 5 2 1 0 0 47 29 34 24 0 1 69 45 116 192 103 22 62 53 23 31 184 486 651 776 871 1164 1309 1434 1413 1166 1109 470 219 444 319 238 272 222 90 66 38 14
1154 1223 1725 2007 1944 1835 1763 1751 1721 1594 1587 1451 1381 1054 656 332 172 67 39 4 5 0 0 0 51 39 0 0 0 48 253 220 197 210 214 194 81 16 17 6 34 79 236 372 734 1042 1177 928 563 177 107 95 57 55 45 5 5 15 14 6 0 0
381 638 894 1236 1255 1179 1253 1543 1515 1462 1508 1306 1211 912 582 295 262 162 71 4 0 0 0 0 0 0 0 0 5 88 65 53 52 67 83 64 7 5 4 0 5 11 16 15 40 63 160 140 109 28 18 1 0 0 0 0 0 0 0 0 0 0
619 728 558 817 814 1232 1274 1428 1482 1684 1595 1335 902 701 461 170 164 142 78 28 0 0 0 0 0 0 0 0 0 0 0 0 0 0 1 1 0 0 1 0 0 0 0 0 4 7 7 15 20 2 0 0 0 0 0 0 0 0 0 0 0 0
229 215 328 601 889 1220 1749 1643 1524 1468 1496 1424 1139 776 638 604 435 353 103 0 0 0 0 0 0 0 0 0 0 0 0 0 0 0 0 0 0 0 0 0 0 0 0 0 0 0 0 0 0 0 0 0 0 0 0 0 0 0 0 0 0 0

ECMWFFLT2_con_mucape_030.txt.gz
CAPE
966 1284 1385 938 829 1203 1333 1564 1702 1720 1696 1826 1914 1869 1926 1832 1690 1680 1714 1081 777 941 1358 1933 1804 1609 1690 1536 1594 1404 1333 1427 1338 1116 1041 963 924 953 895 943 1072 865 1087 997 992 996 990 920 951 1148 1106 1757 2149 1625 1711 1463 536 779 737 739 777 858
852 1040 1132 724 760 756 932 1228 1401 1461 1445 1660 1663 1707 1602 1482 1334 930 808 614 556 738 922 1189 1807 1630 1632 1639 1512 1462 1419 1385 1324 1242 1026 870 841 728 740 628 682 795 703 864 771 769 754 923 885 844 1415 1789 1834 1787 1671 1097 1221 589 711 765 890 1250
875 1295 1160 705 610 695 822 970 1156 1338 1298 1232 1269 1126 1171 995 977 627 588 659 685 614 812 923 1643 1094 1412 1484 1623 1519 1406 1404 1391 1274 1196 1010 869 798 593 689 632 582 632 765 829 509 250 346 655 1126 1398 1469 1848 1774 1674 1202 763 733 528 741 904 1492
1165 986 761 648 695 715 754 868 1119 1161 1294 1288 1278 1048 912 810 753 563 651 719 620 695 762 927 1676 987 1181 1598 1627 1535 1519 1421 1334 1340 1277 1152 1147 904 877 758 777 813 776 515 218 436 291 330 489 567 1067 1511 1664 1785 1640 1185 676 658 720 1006 1078 1426
979 1350 858 761 644 714 730 806 1146 1274 1360 1251 925 1031 852 870 779 702 834 858 814 907 968 1539 1314 1494 1292 1196 1304 1469 1612 1219 1230 1079 1329 713 694 820 916 559 354 559 428 317 338 504 739 411 736 661 881 1564 1521 1553 1422 1378 509 574 547 861 1261 1458
1146 1034 1071 798 929 611 706 1002 1015 1220 1165 952 1267 1039 1156 900 680 593 678 804 762 859 1137 1568 1065 1310 1421 1555 1128 799 1158 1268 475 681 1142 784 666 624 877 830 522 224 253 384 450 634 766 839 882 663 1052 1411 1622 1657 1305 980 936 501 664 1013 1294 1336
1015 996 876 926 1083 1148 1136 1000 965 1272 976 981 888 1102 1196 1035 723 602 646 996 860 794 1009 1511 1124 882 1036 1246 1471 1467 1422 1069 584 375 462 790 520 689 662 680 1094 1023 906 794 220 201 211 549 570 698 972 1200 1279 1322 1279 1077 887 594 667 947 1304 1386
1148 911 876 1104 1271 1030 1316 1052 1027 1516 623 755 683 925 1488 1113 797 837 940 1011 1109 811 965 1420 1113 898 913 1206 1262 1281 1346 1141 1121 887 742 555 804 537 677 1150 1047 1017 990 485 97 203 115 260 706 634 944 1117 1192 1069 1129 793 968 647 539 818 1160 1288
1168 1021 1327 1274 976 973 1448 1404 1097 773 502 739 723 835 986 1198 1045 968 948 873 905 1055 1054 1324 1345 1118 1058 1126 1259 1098 982 1103 960 918 1152 1300 1139 1165 1010 1230 948 556 358 245 235 230 188 138 303 596 855 903 876 839 941 1201 1140 666 440 685 892 1195
1124 1311 1383 1443 1379 1052 1249 1315 1217 860 728 570 663 869 1221 1283 1352 1312 1361 886 939 1377 1173 1355 1400 1131 1133 1246 1182 1332 1257 844 970 992 1192 1522 1303 1190 1162 1142 1054 982 465 384 311 258 237 307 121 310 474 789 841 752 398 540 1260 999 662 629 939 1268
1367 1316 1431 1189 1479 1522 1358 979 825 782 699 720 699 942 1402 1434 1444 1357 1261 1260 1150 1344 1300 1588 1537 1279 1435 1360 1302 1374 1539 1400 1303 1421 1400 1320 1340 1420 1263 1139 1315 1223 893 609 394 300 225 172 147 154 357 364 486 614 816 791 566 1243 680 458 918 1011
1667 1600 1842 1514 1692 1360 1109 677 535 901 1015 1055 1378 1578 1519 1350 1243 1136 996 1013 1226 1252 1523 1652 1468 1389 1448 1402 1416 1394 1460 1384 1353 1402 1232 1243 1487 1498 1419 1398 1264 1352 1341 1078 529 238 348 236 215 99 412 268 551 569 525 705 480 894 985 476 528 676
1554 1324 1274 1315 1352 1568 1514 732 916 993 1321 1454 1678 1773 1423 1067 900 922 1198 1231 1345 1387 1445 1468 1242 1131 1172 1332 1257 1113 1108 1492 1554 1447 1370 1222 1229 1461 1564 1439 1566 1269 1001 920 766 482 532 552 273 450 255 236 45 288 578 349 607 912 836 761 482 509
1249 1334 1004 1030 1022 1092 1418 1538 1283 1288 1512 1725 1685 1534 1353 1220 1302 1482 1468 1524 1591 1492 1234 1277 1408 1251 722 653 733 922 1003 1354 1468 1504 1352 1348 1317 1274 1386 1451 1343 1196 1292 1139 1264 848 455 547 486 227 757 98 373 404 480 589 386 742 955 1157 1556 1240
1294 1171 1245 944 1096 1133 1213 1204 1431 1841 2032 1941 1462 1474 1340 1749 1577 1603 1448 1507 1490 1587 1381 1381 1150 1329 642 789 832 994 1265 1562 1482 1428 1254 1231 1537 1232 1255 1515 1322 1205 1320 1050 1148 840 439 408 647 305 516 513 449 445 788 513 844 596 790 775 1024 1287
1495 1560 1633 1516 1431 1625 1759 1468 1400 1566 1442 1272 1491 870 1300 1887 1776 2035 1691 1564 1559 1535 1313 1220 1088 1160 1270 794 760 1171 1208 902 1327 1178 1326 1210 1265 1247 1328 1298 1064 958 1083 1132 791 665 569 384 329 251 342 424 1077 1247 509 567 809 885 1171 909 1003 878
1356 1670 1711 1460 1243 1324 1434 1154 1229 1090 838 1087 1313 1323 1272 1868 1768 1565 1737 1380 1705 1582 1368 1202 1197 1045 1109 940 817 834 857 1030 1219 1124 1204 1247 1303 1097 1152 1085 859 820 900 846 956 1022 750 303 476 474 419 516 1110 1344 1252 784 751 1339 1487 985 1070 1257
1275 1331 1473 1484 1180 1246 1206 964 820 903 894 762 814 1005 1406 1445 1375 1368 1369 1333 1591 1727 1528 1231 1186 1135 942 845 840 735 932 1029 1209 1210 1243 1344 1148 1158 1147 1157 1182 1031 986 908 856 674 612 757 891 579 588 812 965 1229 1246 1198 900 1370 1420 1099 1118 822
1468 1426 1318 1225 1224 1178 1096 790 528 660 666 678 638 734 1183 1097 1068 1226 1265 1464 1341 1509 1436 1170 1221 1132 825 590 690 831 1017 958 865 1078 1303 987 937 1094 880 787 951 1107 831 744 799 844 648 450 425 533 431 812 818 872 1170 1497 1403 1254 1314 832 808 911
1513 1251 1054 1040 1070 1022 892 826 685 714 779 869 803 617 818 818 1042 1054 1073 1121 1231 1528 1258 1499 1208 1407 1174 1067 874 841 905 912 1112 935 764 727 571 673 765 866 988 1031 1101 953 842 512 586 400 489 301 562 440 612 755 1097 1216 1358 1126 1204 1146 821 705
1247 1113 1002 1098 1127 1153 945 914 989 872 975 1028 528 767 993 814 971 1071 1107 958 1098 1135 1217 1377 1405 1486 1476 1138 1057 990 1115 902 1127 1171 1078 1070 924 719 662 1064 1399 1081 1103 955 840 676 816 708 454 380 628 594 653 935 913 1161 1301 981 908 1018 1059 1132
1318 1270 1244 1304 1148 1425 1390 1162 1271 1030 903 721 612 873 1016 829 774 986 1066 1211 1505 1095 1288 1495 1579 1363 1216 894 1068 999 927 769 918 1155 930 878 991 936 994 1171 1190 1143 1212 1277 1259 1126 1099 855 514 397 577 483 361 608 990 1123 718 627 848 761 691 897
1530 1404 1573 1610 1480 1872 2077 1997 1828 1190 765 479 494 574 253 251 489 632 1323 1302 1308 1420 1257 1114 1351 1562 1075 1399 1218 1202 826 804 887 1178 935 875 1080 1212 1223 1206 1261 1262 1342 1216 1110 682 668 1040 523 670 798 570 540 458 790 1078 1032 759 617 363 766 826
1665 1547 1508 1583 1654 1645 1981 1357 1290 1801 1212 1207 746 786 711 722 658 693 881 1152 1266 1246 1106 929 1018 866 1229 1337 993 1242 1169 1179 938 1150 1434 1249 1179 1059 944 1168 1197 1293 1142 930 818 870 995 910 577 437 541 511 547 738 535 418 1031 676 777 463 768 848
1530 1464 1549 1383 1260 1364 1266 1143 971 651 571 579 830 697 551 383 571 623 799 942 1055 1116 747 367 461 692 969 1311 950 909 1261 912 1314 1471 1355 1400 1280 1135 1174 1239 1304 1315 935 929 626 458 441 770 861 1159 699 347 409 458 586 624 662 641 1014 762 830 528
1508 1477 1362 1162 1095 1010 784 549 707 948 950 938 943 998 870 383 123 443 518 835 792 853 473 943 763 634 651 567 966 1374 1440 1262 1123 1481 1355 1502 1368 1105 1113 1148 1120 1115 966 977 677 421 506 796 994 1189 1188 1695 1372 591 647 551 596 319 902 1125 284 630
1427 1301 1070 983 987 950 662 620 949 1085 1187 1362 1341 1369 641 762 728 48 505 1171 853 798 539 819 790 861 872 820 924 807 684 1106 1066 1060 1180 1336 1291 1330 1079 1109 1368 920 1038 975 754 634 593 595 794 1239 1241 1261 1040 796 612 458 540 238 94 193 362 0
1118 1032 725 770 694 599 593 541 620 1472 1459 1468 1653 1091 1120 754 503 515 522 520 905 956 666 368 863 631 827 636 794 887 709 680 815 624 610 823 1354 1425 1350 917 1332 1241 1061 881 926 689 254 666 690 1108 1167 1184 1179 833 813 972 534 727 54 16 1 0
972 754 570 674 869 788 478 402 284 352 1224 1039 934 1100 513 189 387 460 372 464 866 624 824 920 315 220 430 402 577 584 761 696 592 734 402 540 887 911 1064 1283 1151 1457 1875 1570 1172 545 635 872 650 884 705 771 821 883 940 985 1054 1004 653 0 0 1
832 625 780 885 945 666 261 378 382 152 889 902 1062 653 336 522 446 484 749 818 576 620 349 343 890 659 702 331 586 724 570 516 663 271 412 664 911 1504 1422 1318 1496 1512 1565 1367 1602 794 869 622 632 837 585 748 616 554 543 582 783 698 267 494 25 0
588 595 739 686 580 280 204 423 389 109 883 944 1117 927 565 423 464 548 459 406 794 689 668 579 447 771 290 121 535 637 602 402 454 662 442 362 516 514 929 1273 1464 1479 1212 1296 1134 968 907 756 481 559 697 578 348 396 283 405 531 578 605 431 0 1
647 719 761 579 414 396 317 217 236 230 994 1170 966 822 592 559 506 468 575 846 866 936 499 560 806 538 374 176 585 608 512 595 590 509 413 687 560 478 607 782 1152 1284 1330 891 1242 922 1031 1059 1046 692 681 580 438 277 326 434 570 882 527 449 24 4
573 762 586 484 436 277 336 359 393 576 1415 1009 1026 774 776 698 590 576 691 571 289 499 283 523 750 343 168 172 185 878 725 692 557 373 458 60 58 276 454 504 612 847 878 839 1042 1052 1038 1165 935 943 732 616 421 468 551 782 454 541 547 202 124 0
526 673 634 547 466 404 400 366 398 1138 1208 1161 1176 841 664 554 450 498 649 302 541 442 594 687 380 350 138 271 335 119 280 357 264 85 7 4 270 189 380 140 247 382 628 851 848 908 1132 1000 1074 954 904 651 644 566 291 376 420 135 130 204 133 17
737 881 708 634 472 454 494 499 740 1147 921 1439 1080 778 670 593 516 542 344 266 783 346 579 450 252 217 152 169 310 413 325 155 0 0 0 7 119 80 31 5 72 416 362 341 541 673 699 481 288 232 163 255 66 223 190 178 135 45 92 102 156 28
977 883 731 641 646 627 728 976 1392 960 942 1131 932 884 642 549 682 790 385 689 286 676 476 176 71 43 205 302 102 18 0 0 10 0 0 3 47 0 12 25 1 19 11 122 320 86 0 0 0 0 0 1 0 0 0 0 0 0 16 64 95 5
1096 971 952 953 977 1014 1240 1298 1034 1272 1297 1139 749 771 534 597 594 580 584 286 408 505 185 77 37 72 48 82 40 0 0 0 0 8 0 0 0 0 0 0 0 0 0 0 0 0 0 0 0 0 0 0 0 0 0 0 0 0 5 10 10 307

ECMWFFLT2_con_mucape_033.txt.gz
CAPE
1196 1150 1241 1364 1383 1512 1779 1869 1705 1811 1673 1580 1589 1571 1284 1158 1027 965 902 962 1024 1339 1556 1604 1628 1574 1552 1489 1391 1351 1327 1228 1149 1062 1039 998 914 884 915 938 1033 787 1086 966 1020 958 966 965 873 881 1321 1377 1948 1443 1384 893 728 664 523 655 715 740
1011 943 1043 1171 1198 1297 1298 1343 1326 1284 1389 1235 1286 1344 1158 820 888 555 634 573 1022 1288 1449 1377 1472 1622 1453 1507 1323 1315 1272 1223 1127 1064 930 916 906 875 890 960 804 730 942 751 982 860 838 1106 923 931 1127 1290 1456 1157 1309 552 528 533 599 652 794 1020
923 760 860 961 1014 1126 1232 1072 1029 1181 1368 1390 1417 1401 948 822 465 432 392 649 880 976 1071 1363 1489 1570 1537 1465 1409 1320 1292 1267 1169 1028 903 840 904 783 687 575 660 533 514 628 658 593 553 292 426 884 1194 1171 922 1064 1019 600 613 560 711 864 908 1290
869 675 670 805 927 999 1085 868 1008 1222 1184 1077 948 826 643 482 433 412 452 578 708 842 819 1114 1596 1406 1624 1383 1275 1307 1332 1333 1267 1087 969 943 723 751 634 719 626 762 892 737 373 149 99 22 70 391 445 559 825 954 1152 617 547 630 906 1357 1150 1484
829 605 579 627 782 880 832 740 706 666 551 760 899 778 576 454 416 430 546 555 536 685 674 1138 1187 1230 1194 1212 1173 1133 1201 1144 1118 1089 1129 880 897 765 927 546 330 455 434 212 286 271 222 294 104 150 359 486 783 1055 1408 804 679 851 1032 1164 1422 1555
884 679 502 495 676 764 697 644 602 437 382 752 967 737 609 502 498 585 655 678 754 678 826 1043 973 964 1113 1182 1239 1269 1200 1065 1063 964 1043 706 642 494 592 730 703 552 368 15 19 212 369 363 403 168 233 451 1020 1059 1148 859 697 858 1015 1165 1438 1527
892 737 620 503 717 723 715 794 598 572 372 630 771 796 660 572 544 634 621 849 716 799 1024 941 860 800 948 1069 1101 1070 920 958 908 717 642 624 423 430 362 407 466 555 660 720 721 635 274 345 351 424 364 564 803 786 961 663 625 950 1048 1084 1375 1427
960 828 648 716 684 735 696 730 654 686 560 622 639 704 774 675 548 545 895 969 668 933 1034 899 838 788 704 915 952 868 760 714 521 175 322 312 344 305 323 439 782 808 781 698 448 99 22 223 512 397 370 617 754 984 563 720 574 892 978 1072 1156 1381
1060 883 754 844 749 770 683 633 672 582 600 821 573 860 832 732 663 731 752 835 721 871 996 916 861 768 740 821 673 610 597 562 570 604 684 542 594 436 329 839 778 645 490 305 235 76 184 116 190 326 454 583 630 560 619 637 606 849 889 942 1052 1321
1073 873 853 852 761 760 782 612 533 548 668 728 800 985 981 776 705 834 688 736 817 857 996 772 772 769 799 898 640 612 601 471 607 603 696 1065 963 807 562 600 595 714 657 612 270 180 141 141 11 32 240 425 412 324 614 781 709 743 844 926 1035 1167
967 1031 1011 970 856 829 723 582 532 486 643 683 840 1009 1090 964 995 1075 736 750 969 806 1013 1210 1006 972 924 864 846 911 781 573 805 688 697 1180 1143 1121 801 573 737 782 703 561 342 192 230 54 22 129 338 404 388 492 481 672 746 851 863 908 833 874
969 1044 1073 861 902 936 803 716 491 485 553 670 833 1080 1229 1176 1195 1166 935 776 1094 1049 1262 1278 985 1038 1081 963 1012 1059 1082 979 856 1152 1126 984 1061 1159 1005 864 1093 988 950 531 395 324 160 159 44 64 171 398 573 504 458 669 742 741 823 795 728 753
1139 1169 1096 1038 1114 1156 1050 838 789 706 643 743 966 1196 1280 1216 1143 1125 981 1030 1079 1117 1291 1219 1054 1004 1225 1109 1000 988 1065 1068 1038 1116 1163 992 1187 1126 1299 1414 1232 990 914 692 476 206 216 115 53 123 247 327 427 719 746 644 853 832 748 670 672 642
1345 1144 997 1068 1119 1199 1004 900 841 750 891 812 1236 1294 1240 1139 1019 920 926 1004 1060 1214 1341 1139 942 923 848 868 946 910 1003 960 1148 1236 1071 990 1131 1180 1252 1238 1126 975 940 589 318 184 187 167 172 186 319 444 371 499 466 691 618 802 756 607 644 580
1282 1159 1116 1190 1162 1076 934 790 996 1037 1271 1442 1496 1374 1115 811 880 1026 1055 1182 1192 1208 1172 1039 945 925 846 760 829 692 833 939 1161 1149 1038 875 1176 980 1192 1302 1166 1012 743 454 366 284 148 136 198 345 350 360 515 610 434 419 778 842 887 873 740 584
1227 1401 1313 1252 1065 1007 947 1019 1164 1623 1560 1578 1428 1145 1097 1080 1228 1224 1294 1341 1288 1153 1166 1086 1086 815 746 569 540 595 659 1162 1207 1136 1085 836 1079 1043 1082 1204 1068 864 518 554 467 234 145 102 207 497 419 409 393 341 221 233 664 774 875 859 699 534
1208 1244 1214 1132 1277 1435 1394 1562 1745 1643 1409 1253 1184 1308 1510 1506 1462 1484 1253 1264 1307 1261 1226 1086 901 886 735 588 664 610 795 918 1186 1099 1048 908 1006 1034 967 894 737 660 340 344 445 465 386 220 220 351 506 353 418 411 373 379 424 636 747 838 730 550
1378 1235 1252 1370 1446 1480 1453 1513 1664 1444 1288 1130 974 1129 1604 1589 1382 1288 1341 1260 1312 1203 1119 1021 898 849 818 754 716 716 709 797 1083 964 937 913 1045 935 1014 995 731 654 591 372 316 373 430 449 371 445 630 426 276 300 355 528 817 1289 750 842 852 864
1500 1389 1326 1303 1282 1115 1006 942 1032 976 883 1020 1112 1200 1428 1648 1428 1241 1305 1339 1270 1189 1115 963 819 852 760 751 772 747 732 804 1045 978 1064 1057 968 1004 895 885 842 538 468 494 457 352 302 363 372 501 656 539 397 353 428 617 736 861 1057 1043 1069 1062
1302 1113 1057 1042 904 769 680 841 906 811 846 963 1018 1197 1250 1153 974 1066 1174 1245 1266 1176 1080 921 1038 893 793 741 718 748 772 797 892 890 1016 994 869 854 733 761 808 660 767 600 267 212 204 203 126 310 537 568 536 601 637 661 834 805 724 884 795 746
939 844 769 820 923 858 707 662 706 712 686 680 646 738 919 831 800 899 959 1026 1210 1197 1062 990 1139 1037 933 1058 613 650 713 757 829 812 853 712 867 777 711 876 957 851 714 464 432 389 375 124 71 314 330 344 512 588 671 659 714 702 572 565 493 572
829 781 799 838 754 612 674 778 765 775 842 835 700 740 761 771 814 839 835 880 939 1065 1138 1071 1194 1143 1096 944 701 767 766 778 935 862 768 812 672 624 805 1050 1032 990 844 718 696 499 392 53 77 296 314 333 336 416 357 517 385 499 613 631 640 561
864 862 869 990 1157 1277 1270 1054 1229 853 751 591 611 615 664 709 688 753 780 862 852 899 1061 1011 1026 970 1044 859 716 731 766 664 899 916 848 714 836 733 948 1122 1032 1002 1079 824 709 641 496 692 23 347 124 155 243 245 335 189 260 344 512 557 625 674
1126 1077 1088 1384 1300 1154 1082 903 732 646 490 512 619 551 405 486 658 683 628 822 965 869 1021 992 1011 982 945 904 979 881 855 781 731 876 752 777 954 1066 1102 1146 1110 1139 1002 632 564 592 638 488 93 307 250 222 112 138 258 154 193 255 234 408 283 278
1295 1215 1220 1185 1022 934 796 567 427 130 165 255 168 0 14 154 426 677 595 587 574 448 786 1064 1032 906 1008 1121 1038 1044 862 812 729 738 1093 944 935 1049 972 1088 1127 1158 1004 747 647 498 597 560 240 533 278 16 27 228 262 162 235 118 101 221 420 319
1190 1094 1159 1056 780 641 536 72 178 334 359 275 13 10 43 130 448 187 301 306 326 187 318 350 938 961 1052 959 905 880 916 1056 948 1003 1190 1165 1095 1120 954 1083 1194 1175 876 664 603 560 562 554 561 636 1003 1413 600 101 335 164 43 0 73 152 185 494
1017 1004 1052 898 552 431 324 396 430 419 404 384 122 345 13 0 4 78 168 330 350 71 105 88 218 524 756 717 626 775 905 930 937 1265 1121 1276 1093 1144 1134 1182 1171 1175 866 619 594 415 492 628 518 859 906 896 750 452 359 297 6 0 0 0 0 40
1007 1030 931 748 407 146 375 478 460 431 581 592 478 148 95 0 2 34 363 379 142 0 2 112 124 161 262 283 539 804 857 926 866 968 1064 1241 1219 1143 1054 1023 1116 933 897 812 705 511 642 706 788 779 831 833 380 373 361 30 39 0 0 0 0 0
929 906 850 688 326 398 463 423 394 420 629 806 454 50 0 0 0 2 18 51 59 20 11 5 0 114 87 145 197 156 296 141 328 831 905 838 845 947 794 728 757 833 930 617 675 572 501 684 823 784 734 729 557 509 565 542 156 0 0 0 0 0
737 827 781 636 431 489 435 360 344 438 635 601 533 336 54 0 0 0 59 131 2 0 0 8 10 42 3 98 361 181 112 140 406 650 628 836 936 759 639 539 816 847 934 811 730 487 395 672 741 836 747 618 546 460 444 158 34 0 0 0 0 0
682 764 701 474 356 392 400 327 306 414 533 600 603 402 236 32 10 102 6 17 0 0 18 15 58 26 12 78 194 175 51 50 33 204 238 730 530 545 631 704 881 666 883 727 580 618 471 374 413 713 767 586 532 433 375 21 35 6 0 0 0 2
551 640 521 198 85 181 259 100 124 323 439 546 609 160 2 4 57 47 0 52 80 21 4 22 2 0 0 87 40 23 24 0 2 8 18 92 75 645 804 1081 1031 956 854 727 748 641 490 470 395 308 474 507 586 529 0 26 33 22 0 2 2 2
515 506 388 156 105 327 101 128 152 359 517 384 109 15 9 12 37 32 20 146 114 2 36 70 24 1 0 10 68 41 29 0 0 0 0 0 300 449 592 805 801 762 815 788 715 585 294 372 178 94 44 39 136 500 406 404 414 96 31 0 1 5
593 557 379 265 188 260 134 216 342 470 630 367 157 77 46 13 32 8 85 194 90 2 44 34 0 0 1 0 173 121 16 0 0 0 0 0 0 320 480 585 654 703 660 664 766 722 593 514 344 87 55 74 103 78 306 393 422 222 156 10 0 0
610 616 401 295 293 320 312 400 394 568 495 357 284 221 99 60 40 19 49 3 29 8 33 3 0 3 0 11 35 0 0 0 0 0 0 0 0 0 298 500 460 466 530 645 741 717 638 612 537 308 61 22 72 10 373 339 292 208 171 8 0 0
594 640 482 367 374 381 365 394 427 776 487 418 317 94 103 47 85 4 7 108 120 12 0 0 0 0 8 0 0 0 0 0 0 0 0 0 0 0 0 152 326 418 378 345 192 168 151 211 523 414 21 1 27 40 8 189 194 71 63 0 0 0
626 675 565 480 406 404 418 467 614 823 571 398 274 97 56 119 37 20 64 4 0 0 0 0 0 0 0 0 0 0 0 0 0 0 0 0 0 0 0 0 0 0 0 0 0 0 0 0 0 0 0 0 0 0 0 0 0 26 40 49 79 2

ECMWFFLT2_con_mucape_036.txt.gz
CAPE
1466 1386 1355 1397 1408 1461 1886 1932 1844 1831 1774 1754 1683 1643 1520 1902 1860 1874 1735 1920 1806 1633 1557 1648 1653 1593 1822 1684 1640 1578 1494 1427 1355 1265 1224 1217 1297 1200 1108 1060 970 952 1021 951 917 982 1016 1089 1153 1163 1179 1495 1353 845 919 759 695 605 455 607 599 636
1293 1258 1282 1347 1362 1390 1606 1539 1522 1669 1613 1647 1631 1627 1514 1445 1638 1545 1637 1614 1531 1563 1424 1452 1552 1709 1553 1742 1583 1538 1442 1351 1245 1250 1174 1062 1032 939 1011 1020 984 862 864 730 764 751 606 548 693 937 1314 1208 928 826 845 633 505 435 424 414 669 1006
1163 1150 1189 1186 1132 1212 1277 1266 1247 1240 1261 1495 1608 1400 1140 1164 1124 1180 1212 1314 1355 1403 1443 1499 1635 1556 1576 1554 1579 1491 1417 1315 1190 1103 1050 968 948 873 743 703 736 616 539 600 459 313 311 256 576 667 766 840 815 700 594 500 511 488 493 587 784 1156
1052 1065 1016 947 961 1123 1157 1132 1062 1053 1150 1297 1216 884 869 800 771 719 947 1198 1224 1318 1458 1536 1908 1769 1609 1552 1410 1454 1428 1306 1180 970 868 990 1107 944 834 860 741 734 624 447 276 73 60 154 509 638 659 809 902 558 497 501 473 454 605 1015 901 1298
926 917 900 834 852 1002 1040 1000 964 1005 1098 1121 977 752 568 446 383 496 893 905 950 1119 1254 1376 1608 1444 1392 1362 1333 1279 1240 1168 1031 1062 835 729 723 590 629 593 554 521 362 438 247 93 98 107 308 411 518 663 864 861 534 503 498 682 827 801 1045 1328
912 864 878 829 782 864 864 828 820 846 783 777 736 558 393 315 301 418 713 716 832 924 1110 1229 1463 1257 1254 1269 1237 1285 1224 1125 1075 1008 915 753 739 598 470 407 424 405 551 569 548 361 262 277 244 248 384 592 748 938 868 617 712 845 872 925 1204 1444
875 865 843 792 763 765 694 593 668 637 626 656 578 467 355 334 384 417 509 538 651 845 953 1085 1141 1141 1140 1196 1168 1166 1100 1078 985 966 918 725 534 435 330 301 337 596 584 482 336 45 101 225 136 26 301 439 684 798 792 641 799 948 1021 1084 1411 1506
844 808 771 746 708 676 512 172 411 508 587 630 626 486 379 348 418 531 487 574 730 897 881 943 969 1024 1047 1093 1133 976 950 1004 921 743 619 584 476 215 173 328 625 619 366 264 56 43 13 234 296 297 302 491 624 744 756 643 842 987 1002 1044 1235 1415
796 808 736 663 640 630 471 160 225 306 581 863 678 581 471 411 478 583 519 596 777 896 886 852 842 941 995 1020 952 789 710 669 528 442 365 186 330 312 259 453 515 446 92 52 40 46 45 287 393 404 332 483 632 724 673 675 852 877 846 867 958 1284
760 746 713 588 668 664 543 452 401 54 590 798 699 647 587 508 477 552 585 535 719 872 918 819 820 830 794 835 844 745 658 577 449 397 516 720 700 677 528 454 377 355 128 68 58 104 254 348 421 369 350 434 596 546 561 688 808 771 756 778 812 1148
908 744 718 581 604 745 657 532 516 368 611 601 729 736 698 691 632 565 610 557 665 841 855 883 832 796 674 679 625 574 492 441 389 396 828 1026 867 727 540 381 302 426 113 62 55 42 23 146 297 358 329 371 344 418 562 577 735 731 740 549 646 827
951 827 744 625 650 755 739 622 567 534 628 540 808 867 696 669 739 646 545 657 617 856 889 797 809 756 780 741 800 845 564 494 444 427 1066 898 1001 991 617 583 746 415 205 68 46 39 37 172 151 194 272 302 296 438 613 624 687 732 552 496 572 567
1026 947 769 679 755 774 739 668 682 611 618 609 888 958 817 835 881 770 602 810 643 757 996 1114 877 919 890 885 1030 1030 1057 1010 867 891 1055 806 1031 1045 1077 1030 733 474 105 143 195 59 86 54 55 232 288 315 329 464 559 563 620 604 544 466 446 507
1150 937 854 813 782 760 783 695 578 592 702 729 977 1094 1004 1060 1077 972 773 876 868 748 983 1200 986 1028 1036 961 996 985 1078 1046 992 1057 1070 967 1091 1168 1176 986 703 440 429 219 106 70 87 43 202 114 255 324 408 465 553 613 640 564 494 515 456 401
1164 1048 1006 976 898 846 808 676 546 524 658 784 1045 1184 1166 1130 1111 1077 898 896 975 978 1045 1180 1056 998 1052 940 920 981 1037 1058 1050 1099 972 1014 1036 960 1015 999 849 472 372 354 237 175 139 157 159 209 236 289 336 352 622 742 698 560 559 495 387 346
1222 1122 1139 996 1046 848 843 755 717 753 755 848 1123 1249 1243 1150 1077 1012 850 920 951 1019 1152 1214 1052 930 881 855 890 869 970 1114 1047 1053 955 952 884 956 1066 1057 894 556 339 354 356 99 272 305 328 305 316 321 264 300 573 681 667 560 558 486 407 256
1258 1226 1167 1160 1230 1066 938 877 774 882 796 1094 1270 1289 1258 1212 959 836 862 896 987 1072 1133 1102 961 980 891 791 681 563 831 1164 1112 1060 890 943 904 878 1076 927 682 321 248 330 399 344 343 346 302 276 267 236 253 294 500 648 727 646 591 397 432 362
1342 1298 1226 1233 1296 1125 959 910 871 1058 1090 1344 1416 1367 1255 915 898 995 1092 1129 1128 1160 1084 1054 1041 1008 829 708 607 627 778 1062 1067 988 811 879 865 756 782 767 382 110 186 250 308 337 472 522 416 317 258 277 312 388 452 694 764 703 639 522 463 336
1350 1180 1231 1255 1105 974 870 1032 1163 1317 1395 1530 1528 1215 936 1060 1276 1278 1289 1262 1245 1208 1164 1106 1051 945 851 778 703 677 663 870 1008 895 748 842 829 858 791 647 331 173 304 216 223 82 347 553 552 379 318 362 443 452 444 564 717 597 612 538 351 367
1272 1317 1331 1175 1028 1048 1161 1305 1417 1457 1430 1436 1212 1107 1327 1370 1388 1433 1394 1280 1239 1230 1167 1116 993 874 824 743 724 724 678 874 914 797 802 783 730 726 767 697 546 202 322 263 275 253 359 604 579 445 341 345 420 545 570 612 608 576 693 517 475 578
1342 1371 1326 1317 1336 1268 1245 1284 1293 1283 1145 1071 859 1089 1533 1528 1431 1308 1338 1308 1267 1100 1062 952 870 835 784 767 687 677 683 854 829 796 794 773 717 579 615 661 457 182 12 250 252 256 363 592 660 508 391 374 489 564 599 632 664 625 689 636 652 709
1359 1330 1385 1412 1474 1371 1217 1121 1101 1055 948 961 952 1079 1381 1513 1509 1252 1273 1299 1217 1130 1082 955 972 962 919 893 599 571 601 691 601 519 599 660 694 637 584 749 641 467 193 245 283 297 269 504 467 443 500 446 409 431 552 612 631 599 556 585 638 697
1286 1314 1354 1321 1250 1124 1061 975 881 752 786 889 1043 1197 1235 1196 1168 1048 1086 1156 1186 1129 1040 926 910 930 954 923 676 598 614 679 596 527 573 545 586 530 698 863 888 621 622 596 373 372 319 496 311 338 282 180 216 390 395 524 458 555 478 404 310 425
1260 1259 1213 1054 905 782 787 799 643 640 684 677 763 826 904 836 826 819 871 994 1082 1092 961 933 1015 993 1001 854 667 646 662 782 784 711 627 636 532 475 742 926 915 832 771 532 484 418 485 435 370 236 109 299 6 28 170 296 326 374 420 538 578 491
1166 1131 1058 925 845 724 713 626 603 538 523 588 674 739 739 761 764 780 755 751 814 922 915 893 938 878 889 780 739 733 758 665 797 811 802 609 665 668 852 982 976 983 898 560 546 517 518 295 291 445 10 0 5 42 0 0 0 0 85 147 132 251
936 881 930 1001 852 837 687 664 621 544 577 626 659 608 628 582 562 583 607 503 669 850 893 867 914 812 777 802 841 839 760 630 671 674 614 661 691 803 904 972 1003 1054 958 572 448 614 592 418 338 378 414 483 24 60 166 0 0 6 0 0 98 312
960 985 1153 1172 994 813 741 698 618 511 528 509 457 318 407 575 580 516 414 370 251 467 785 907 845 812 906 870 839 873 726 646 615 548 840 930 758 832 860 784 997 964 963 739 519 515 586 495 357 739 767 744 519 367 0 0 0 0 0 0 151 8
1057 1095 1224 1271 981 838 739 587 509 349 400 338 17 291 456 554 465 364 340 357 239 388 625 835 800 851 814 693 667 658 712 826 787 692 884 1007 959 876 903 836 942 1078 1062 736 560 525 556 452 394 702 750 519 247 301 10 0 0 0 0 0 0 0
1108 1122 1210 1210 953 838 614 432 307 296 255 46 51 329 437 414 395 343 407 382 314 226 72 114 403 431 467 489 529 564 634 687 707 772 949 962 974 920 957 962 982 1008 955 732 618 582 444 524 464 736 580 358 229 16 145 0 0 0 0 0 0 0
1128 1074 1177 1123 867 773 536 399 315 319 275 120 1 38 291 403 373 387 404 324 0 0 221 0 0 0 1 148 0 204 225 310 526 633 797 795 847 894 900 694 823 915 788 776 627 548 472 607 646 723 488 324 338 78 0 0 0 0 0 0 0 0
1118 1051 1195 1039 718 662 453 385 398 427 225 2 0 143 351 406 364 238 217 134 0 0 206 62 0 0 0 0 3 1 71 364 401 550 615 655 634 620 452 530 640 678 752 723 559 586 423 650 731 726 528 318 316 99 0 0 0 0 0 0 0 0
1014 1019 1159 1012 590 578 439 435 463 426 254 149 0 60 123 10 0 2 0 208 172 83 164 139 0 0 100 156 0 0 0 205 423 508 472 432 397 372 447 443 520 582 732 668 624 453 321 516 724 772 634 381 115 0 0 0 0 0 0 0 0 0
981 1043 1105 1006 620 440 381 354 480 482 343 290 193 0 0 0 0 0 0 95 224 169 9 9 0 0 0 0 0 0 0 0 0 195 0 0 383 470 539 710 655 577 633 555 449 415 363 446 517 618 727 500 320 212 0 0 0 0 0 0 0 0
972 1098 1076 954 667 387 306 334 586 614 460 361 361 326 0 0 0 0 0 0 0 0 0 0 0 0 1 10 2 0 0 0 0 0 0 0 348 636 742 754 707 679 625 456 404 398 366 345 336 359 672 626 491 334 0 0 0 0 0 0 0 0
1005 1048 1038 892 588 484 406 348 553 693 673 573 624 487 0 0 72 124 0 0 0 0 0 0 0 0 0 0 0 0 0 0 0 0 0 0 0 358 573 615 618 520 492 520 526 436 327 273 222 250 375 450 532 400 0 11 0 2 0 0 0 0
1001 994 979 848 569 528 415 340 470 600 638 614 448 0 0 1 0 0 0 232 78 0 0 0 0 0 0 0 0 0 0 0 0 0 0 0 129 358 402 468 464 419 431 480 524 406 281 217 6 0 0 140 434 483 254 179 123 0 34 0 0 0
869 910 867 736 494 406 374 317 391 610 551 400 140 0 0 4 0 0 255 77 0 0 0 0 0 0 0 0 0 0 0 0 0 0 0 0 0 0 184 352 370 404 467 542 541 500 415 370 300 164 0 0 155 330 320 224 173 43 0 0 0 0